| time (UTC) | temp C | wind direction | speed KPH | gust KPH | rain 1hr cm | rain 24hr cm | rain mn cm | humidity % | barometer mb |
| 20260902034503 | 20 | 61 | 1.6 | 6.4 | 0.00 | 0.00 | 0.00 | 100 | 1015.0 |
| 20260902034302 | 20 | 49 | 1.6 | 4.8 | 0.00 | 0.00 | 0.00 | 100 | 1014.9 |
| 20260902034102 | 20 | 21 | 1.6 | 4.8 | 0.00 | 0.00 | 0.00 | 100 | 1014.9 |
| 20260902033902 | 20 | 29 | 0.0 | 4.8 | 0.00 | 0.00 | 0.00 | 100 | 1014.9 |
| 20260902033702 | 20 | 27 | 0.0 | 4.8 | 0.00 | 0.00 | 0.00 | 100 | 1015.0 |
| 20260902033501 | 20 | 31 | 0.0 | 4.8 | 0.00 | 0.00 | 0.00 | 100 | 1014.9 |
| 20260902033301 | 20 | 37 | 1.6 | 4.8 | 0.00 | 0.00 | 0.00 | 100 | 1015.0 |
| 20260902033100 | 20 | 27 | 1.6 | 4.8 | 0.00 | 0.00 | 0.00 | 100 | 1014.9 |
| 20260902032900 | 20 | 46 | 1.6 | 4.8 | 0.00 | 0.00 | 0.00 | 100 | 1014.9 |
| 20260902032700 | 20 | 60 | 1.6 | 4.8 | 0.00 | 0.00 | 0.00 | 100 | 1014.9 |
| 20260902032500 | 20 | 60 | 0.0 | 4.8 | 0.00 | 0.00 | 0.00 | 100 | 1015.0 |
| 20260902032259 | 20 | 60 | 0.0 | 4.8 | 0.00 | 0.00 | 0.00 | 100 | 1015.0 |
| 20260902032059 | 20 | 60 | 1.6 | 8.0 | 0.00 | 0.00 | 0.00 | 100 | 1015.0 |
| 20260902031859 | 20 | 59 | 0.0 | 8.0 | 0.00 | 0.00 | 0.00 | 100 | 1015.0 |
| 20260902031658 | 20 | 59 | 0.0 | 8.0 | 0.00 | 0.00 | 0.00 | 100 | 1014.9 |
| 20260902031458 | 20 | 50 | 3.2 | 8.0 | 0.00 | 0.00 | 0.00 | 100 | 1014.9 |
| 20260902031258 | 20 | 35 | 1.6 | 8.0 | 0.00 | 0.00 | 0.00 | 100 | 1014.9 |
| 20260902031057 | 20 | 32 | 0.0 | 6.4 | 0.00 | 0.00 | 0.00 | 100 | 1015.0 |
| 20260902030857 | 20 | 32 | 0.0 | 6.4 | 0.00 | 0.00 | 0.00 | 100 | 1014.9 |
| 20260902030657 | 20 | 34 | 1.6 | 6.4 | 0.00 | 0.00 | 0.00 | 100 | 1014.9 |
| 20260902030456 | 20 | 45 | 1.6 | 6.4 | 0.00 | 0.00 | 0.00 | 100 | 1014.9 |
| 20260902030256 | 20 | 48 | 0.0 | 6.4 | 0.00 | 0.00 | 0.00 | 100 | 1014.9 |
| 20260902030056 | 20 | 48 | 0.0 | 6.4 | 0.00 | 0.00 | 0.00 | 100 | 1014.9 |
| 20260902025856 | 20 | 48 | 0.0 | 6.4 | 0.00 | 0.03 | 0.00 | 100 | 1014.9 |
| 20260902025655 | 20 | 47 | 1.6 | 6.4 | 0.00 | 0.03 | 0.00 | 100 | 1014.9 |
| 20260902025455 | 20 | 40 | 1.6 | 6.4 | 0.00 | 0.03 | 0.00 | 100 | 1015.0 |
| 20260902025255 | 20 | 51 | 0.0 | 6.4 | 0.00 | 0.03 | 0.00 | 100 | 1014.9 |
| 20260902025054 | 20 | 40 | 1.6 | 6.4 | 0.00 | 0.03 | 0.00 | 100 | 1014.9 |
| 20260902024854 | 20 | 40 | 1.6 | 6.4 | 0.00 | 0.03 | 0.00 | 100 | 1014.8 |
| 20260902024654 | 20 | 41 | 0.0 | 6.4 | 0.00 | 0.03 | 0.00 | 100 | 1014.8 |
| 20260902024453 | 20 | 41 | 0.0 | 6.4 | 0.00 | 0.03 | 0.00 | 100 | 1014.9 |
| 20260902024253 | 20 | 31 | 1.6 | 8.0 | 0.00 | 0.03 | 0.00 | 100 | 1015.0 |
| 20260902024053 | 20 | 23 | 1.6 | 8.0 | 0.00 | 0.03 | 0.00 | 100 | 1014.9 |
| 20260902023852 | 20 | 28 | 0.0 | 8.0 | 0.00 | 0.03 | 0.00 | 100 | 1014.9 |
| 20260902023652 | 20 | 28 | 0.0 | 8.0 | 0.00 | 0.03 | 0.00 | 100 | 1014.8 |
| 20260902023452 | 20 | 29 | 1.6 | 8.0 | 0.00 | 0.03 | 0.00 | 100 | 1014.8 |
| 20260902023252 | 20 | 52 | 1.6 | 8.0 | 0.00 | 0.03 | 0.00 | 100 | 1014.8 |
| 20260902023051 | 20 | 302 | 1.6 | 4.8 | 0.00 | 0.03 | 0.00 | 100 | 1014.8 |
| 20260902022851 | 20 | 356 | 0.0 | 4.8 | 0.00 | 0.03 | 0.00 | 100 | 1014.9 |
| 20260902022651 | 20 | 31 | 0.0 | 4.8 | 0.00 | 0.03 | 0.00 | 100 | 1014.8 |
| 20260902022450 | 20 | 41 | 0.0 | 4.8 | 0.00 | 0.03 | 0.00 | 100 | 1014.9 |
| 20260902022250 | 20 | 31 | 0.0 | 4.8 | 0.00 | 0.03 | 0.00 | 100 | 1014.9 |
| 20260902022050 | 20 | 17 | 1.6 | 4.8 | 0.00 | 0.03 | 0.00 | 100 | 1014.9 |
| 20260902021849 | 20 | 6 | 1.6 | 4.8 | 0.00 | 0.03 | 0.00 | 100 | 1014.9 |
| 20260902021649 | 20 | 6 | 0.0 | 4.8 | 0.00 | 0.03 | 0.00 | 100 | 1014.9 |
| 20260902021449 | 20 | 9 | 1.6 | 4.8 | 0.00 | 0.03 | 0.00 | 100 | 1014.8 |
| 20260902021248 | 20 | 2 | 1.6 | 4.8 | 0.00 | 0.03 | 0.00 | 100 | 1014.9 |
| 20260902021048 | 20 | 10 | 0.0 | 4.8 | 0.00 | 0.03 | 0.00 | 100 | 1014.7 |
| 20260902020848 | 20 | 26 | 0.0 | 4.8 | 0.00 | 0.03 | 0.00 | 100 | 1014.8 |
| 20260902020648 | 20 | 24 | 0.0 | 4.8 | 0.00 | 0.03 | 0.00 | 100 | 1014.8 |
| 20260902020447 | 20 | 19 | 0.0 | 4.8 | 0.00 | 0.03 | 0.00 | 99 | 1014.7 |
| 20260902020247 | 20 | 8 | 1.6 | 6.4 | 0.00 | 0.03 | 0.00 | 99 | 1014.8 |
| 20260902020047 | 20 | 4 | 0.0 | 6.4 | 0.00 | 0.03 | 0.00 | 99 | 1014.7 |
| 20260902015846 | 20 | 4 | 0.0 | 6.4 | 0.00 | 0.03 | 0.00 | 99 | 1014.8 |
| 20260902015646 | 20 | 4 | 0.0 | 6.4 | 0.00 | 0.03 | 0.00 | 99 | 1014.8 |
| 20260902015446 | 20 | 4 | 1.6 | 6.4 | 0.00 | 0.03 | 0.00 | 99 | 1014.9 |
| 20260902015245 | 20 | 3 | 0.0 | 4.8 | 0.00 | 0.03 | 0.00 | 99 | 1014.9 |
| 20260902015045 | 20 | 3 | 0.0 | 4.8 | 0.00 | 0.03 | 0.00 | 99 | 1014.9 |
| 20260902014845 | 20 | 356 | 0.0 | 4.8 | 0.00 | 0.03 | 0.00 | 99 | 1014.9 |
| 20260902014644 | 20 | 7 | 1.6 | 4.8 | 0.00 | 0.03 | 0.00 | 99 | 1014.9 |
| 20260902014444 | 20 | 23 | 1.6 | 4.8 | 0.00 | 0.03 | 0.00 | 99 | 1014.9 |
| 20260902014244 | 20 | 50 | 0.0 | 6.4 | 0.00 | 0.03 | 0.00 | 99 | 1014.9 |
| 20260902014043 | 20 | 53 | 0.0 | 6.4 | 0.00 | 0.03 | 0.00 | 99 | 1014.9 |
| 20260902013843 | 20 | 14 | 1.6 | 6.4 | 0.00 | 0.03 | 0.00 | 99 | 1014.9 |
| 20260902013643 | 20 | 29 | 1.6 | 6.4 | 0.00 | 0.03 | 0.00 | 98 | 1015.0 |
| 20260902013442 | 20 | 50 | 1.6 | 6.4 | 0.00 | 0.03 | 0.00 | 98 | 1014.9 |
| 20260902013242 | 20 | 20 | 1.6 | 6.4 | 0.00 | 0.03 | 0.00 | 98 | 1014.8 |
| 20260902013042 | 20 | 355 | 1.6 | 6.4 | 0.00 | 0.03 | 0.00 | 98 | 1014.8 |
| 20260902012842 | 21 | 336 | 0.0 | 6.4 | 0.00 | 0.03 | 0.00 | 98 | 1014.8 |
| 20260902012641 | 21 | 323 | 0.0 | 6.4 | 0.00 | 0.03 | 0.00 | 98 | 1014.9 |
| 20260902012441 | 21 | 349 | 0.0 | 6.4 | 0.00 | 0.03 | 0.00 | 98 | 1014.8 |
| 20260902012241 | 21 | 349 | 0.0 | 6.4 | 0.00 | 0.03 | 0.00 | 98 | 1014.8 |
| 20260902012040 | 21 | 359 | 1.6 | 6.4 | 0.00 | 0.03 | 0.00 | 98 | 1014.8 |
| 20260902011840 | 21 | 5 | 1.6 | 6.4 | 0.00 | 0.03 | 0.00 | 98 | 1014.8 |
| 20260902011640 | 21 | 1 | 1.6 | 6.4 | 0.00 | 0.03 | 0.00 | 98 | 1014.8 |
| 20260902011439 | 21 | 19 | 0.0 | 4.8 | 0.00 | 0.03 | 0.00 | 98 | 1014.8 |
| 20260902011239 | 21 | 55 | 0.0 | 4.8 | 0.00 | 0.03 | 0.00 | 98 | 1014.8 |
| 20260902011039 | 21 | 51 | 0.0 | 4.8 | 0.00 | 0.03 | 0.00 | 98 | 1014.8 |
| 20260902010838 | 21 | 27 | 0.0 | 4.8 | 0.00 | 0.03 | 0.00 | 97 | 1014.8 |
| 20260902010638 | 21 | 24 | 0.0 | 6.4 | 0.00 | 0.03 | 0.00 | 97 | 1014.8 |
| 20260902010438 | 21 | 5 | 0.0 | 6.4 | 0.00 | 0.03 | 0.00 | 97 | 1014.8 |
| 20260902010238 | 21 | 348 | 0.0 | 8.0 | 0.00 | 0.03 | 0.00 | 97 | 1014.7 |
| 20260902010037 | 21 | 5 | 0.0 | 8.0 | 0.00 | 0.03 | 0.00 | 97 | 1014.7 |
| 20260902005837 | 21 | 46 | 1.6 | 8.0 | 0.00 | 0.03 | 0.00 | 96 | 1014.7 |
| 20260902005637 | 21 | 57 | 3.2 | 8.0 | 0.00 | 0.03 | 0.00 | 96 | 1014.8 |
| 20260902005436 | 21 | 41 | 1.6 | 8.0 | 0.00 | 0.03 | 0.00 | 96 | 1014.7 |
| 20260902005236 | 21 | 18 | 1.6 | 6.4 | 0.00 | 0.03 | 0.00 | 96 | 1014.7 |
| 20260902005036 | 21 | 28 | 1.6 | 6.4 | 0.00 | 0.03 | 0.00 | 96 | 1014.6 |
| 20260902004835 | 21 | 41 | 1.6 | 6.4 | 0.00 | 0.03 | 0.00 | 96 | 1014.6 |
| 20260902004635 | 21 | 30 | 0.0 | 6.4 | 0.00 | 0.03 | 0.00 | 96 | 1014.5 |
| 20260902004435 | 21 | 31 | 1.6 | 6.4 | 0.00 | 0.03 | 0.00 | 96 | 1014.6 |
| 20260902004234 | 21 | 20 | 1.6 | 6.4 | 0.00 | 0.03 | 0.00 | 96 | 1014.5 |
| 20260902004034 | 21 | 27 | 0.0 | 6.4 | 0.00 | 0.03 | 0.00 | 96 | 1014.5 |
| 20260902003834 | 21 | 44 | 1.6 | 6.4 | 0.00 | 0.03 | 0.00 | 95 | 1014.4 |
| 20260902003633 | 22 | 50 | 1.6 | 6.4 | 0.00 | 0.03 | 0.00 | 95 | 1014.5 |
| 20260902003433 | 22 | 48 | 0.0 | 4.8 | 0.00 | 0.03 | 0.00 | 96 | 1014.5 |
| 20260902003233 | 22 | 39 | 0.0 | 4.8 | 0.00 | 0.03 | 0.00 | 95 | 1014.4 |
| 20260902003033 | 22 | 39 | 0.0 | 4.8 | 0.00 | 0.03 | 0.00 | 95 | 1014.5 |
| 20260902002832 | 22 | 37 | 0.0 | 4.8 | 0.00 | 0.03 | 0.00 | 95 | 1014.4 |
| 20260902002632 | 22 | 36 | 1.6 | 4.8 | 0.00 | 0.03 | 0.00 | 95 | 1014.4 |
| 20260902002432 | 22 | 35 | 1.6 | 4.8 | 0.00 | 0.03 | 0.00 | 95 | 1014.3 |
| 20260902002231 | 22 | 44 | 0.0 | 4.8 | 0.00 | 0.03 | 0.00 | 95 | 1014.3 |
| 20260902002031 | 22 | 44 | 1.6 | 4.8 | 0.00 | 0.03 | 0.00 | 95 | 1014.3 |
| 20260902001831 | 22 | 33 | 1.6 | 4.8 | 0.00 | 0.03 | 0.00 | 95 | 1014.2 |
| 20260902001630 | 22 | 49 | 1.6 | 4.8 | 0.00 | 0.03 | 0.00 | 94 | 1014.2 |
| 20260902001430 | 22 | 43 | 1.6 | 8.0 | 0.00 | 0.03 | 0.00 | 94 | 1014.3 |
| 20260902001230 | 22 | 41 | 1.6 | 8.0 | 0.00 | 0.03 | 0.00 | 94 | 1014.3 |
| 20260902001029 | 22 | 41 | 0.0 | 8.0 | 0.00 | 0.03 | 0.00 | 94 | 1014.2 |
| 20260902000829 | 22 | 49 | 1.6 | 8.0 | 0.00 | 0.03 | 0.00 | 94 | 1014.3 |
| 20260902000629 | 22 | 56 | 1.6 | 8.0 | 0.00 | 0.03 | 0.00 | 94 | 1014.3 |
| 20260902000429 | 22 | 56 | 1.6 | 8.0 | 0.00 | 0.03 | 0.00 | 94 | 1014.3 |
| 20260902000228 | 22 | 55 | 0.0 | 3.2 | 0.00 | 0.03 | 0.00 | 94 | 1014.4 |
| 20260902000028 | 22 | 48 | 0.0 | 4.8 | 0.00 | 0.03 | 0.00 | 94 | 1014.4 |
| 20260901235828 | 22 | 36 | 0.0 | 4.8 | 0.00 | 0.03 | 0.00 | 93 | 1014.4 |
| 20260901235627 | 22 | 35 | 0.0 | 4.8 | 0.00 | 0.03 | 0.00 | 93 | 1014.4 |
| 20260901235427 | 22 | 35 | 0.0 | 4.8 | 0.00 | 0.03 | 0.00 | 93 | 1014.4 |
| 20260901235227 | 22 | 49 | 1.6 | 4.8 | 0.00 | 0.03 | 0.00 | 93 | 1014.4 |
| 20260901235026 | 22 | 68 | 1.6 | 4.8 | 0.00 | 0.03 | 0.00 | 93 | 1014.4 |
| 20260901234826 | 22 | 50 | 1.6 | 4.8 | 0.00 | 0.03 | 0.00 | 93 | 1014.4 |
| 20260901234626 | 23 | 51 | 1.6 | 4.8 | 0.00 | 0.03 | 0.00 | 93 | 1014.4 |
| 20260901234426 | 23 | 79 | 0.0 | 3.2 | 0.00 | 0.03 | 0.00 | 93 | 1014.5 |
| 20260901234225 | 23 | 71 | 0.0 | 6.4 | 0.00 | 0.03 | 0.00 | 92 | 1014.4 |
| 20260901234025 | 23 | 31 | 0.0 | 8.0 | 0.00 | 0.03 | 0.00 | 92 | 1014.4 |
| 20260901233824 | 23 | 31 | 0.0 | 8.0 | 0.00 | 0.03 | 0.00 | 92 | 1014.4 |
| 20260901233624 | 23 | 57 | 1.6 | 8.0 | 0.00 | 0.03 | 0.00 | 92 | 1014.4 |
| 20260901233424 | 23 | 61 | 1.6 | 8.0 | 0.00 | 0.03 | 0.00 | 92 | 1014.4 |
| 20260901233223 | 23 | 22 | 1.6 | 8.0 | 0.00 | 0.03 | 0.00 | 92 | 1014.4 |
| 20260901233023 | 23 | 24 | 0.0 | 6.4 | 0.00 | 0.03 | 0.00 | 91 | 1014.3 |
| 20260901232823 | 23 | 67 | 1.6 | 4.8 | 0.00 | 0.03 | 0.00 | 91 | 1014.3 |
| 20260901232623 | 23 | 81 | 1.6 | 4.8 | 0.00 | 0.03 | 0.00 | 91 | 1014.3 |
| 20260901232422 | 23 | 53 | 1.6 | 4.8 | 0.00 | 0.03 | 0.00 | 91 | 1014.3 |
| 20260901232222 | 23 | 31 | 1.6 | 4.8 | 0.00 | 0.03 | 0.00 | 91 | 1014.3 |
| 20260901232022 | 23 | 24 | 0.0 | 4.8 | 0.00 | 0.03 | 0.00 | 91 | 1014.4 |
| 20260901231821 | 23 | 25 | 1.6 | 4.8 | 0.00 | 0.03 | 0.00 | 90 | 1014.4 |
| 20260901231621 | 23 | 57 | 1.6 | 3.2 | 0.00 | 0.03 | 0.00 | 90 | 1014.4 |
| 20260901231421 | 23 | 79 | 0.0 | 3.2 | 0.00 | 0.03 | 0.00 | 90 | 1014.4 |
| 20260901231220 | 23 | 45 | 0.0 | 6.4 | 0.00 | 0.03 | 0.00 | 91 | 1014.4 |
| 20260901231020 | 23 | 31 | 0.0 | 6.4 | 0.00 | 0.03 | 0.00 | 91 | 1014.4 |
| 20260901230820 | 23 | 32 | 0.0 | 6.4 | 0.00 | 0.03 | 0.00 | 90 | 1014.4 |
| 20260901230619 | 23 | 27 | 1.6 | 6.4 | 0.00 | 0.03 | 0.00 | 90 | 1014.4 |
| 20260901230419 | 23 | 13 | 1.6 | 6.4 | 0.00 | 0.03 | 0.00 | 90 | 1014.4 |
| 20260901230219 | 23 | 18 | 1.6 | 4.8 | 0.00 | 0.03 | 0.00 | 89 | 1014.4 |
| 20260901230019 | 24 | 56 | 1.6 | 4.8 | 0.00 | 0.03 | 0.00 | 89 | 1014.4 |
| 20260901225818 | 24 | 53 | 1.6 | 4.8 | 0.00 | 0.03 | 0.00 | 89 | 1014.5 |
| 20260901225618 | 24 | 59 | 0.0 | 4.8 | 0.00 | 0.03 | 0.00 | 89 | 1014.4 |
| 20260901225418 | 24 | 70 | 0.0 | 6.4 | 0.00 | 0.03 | 0.00 | 89 | 1014.4 |
| 20260901225217 | 24 | 53 | 0.0 | 6.4 | 0.00 | 0.03 | 0.00 | 89 | 1014.5 |
| 20260901225017 | 24 | 51 | 0.0 | 6.4 | 0.00 | 0.03 | 0.00 | 89 | 1014.4 |
| 20260901224817 | 24 | 56 | 1.6 | 6.4 | 0.00 | 0.03 | 0.00 | 89 | 1014.4 |
| 20260901224616 | 24 | 65 | 1.6 | 3.2 | 0.00 | 0.03 | 0.00 | 89 | 1014.3 |
| 20260901224416 | 24 | 63 | 0.0 | 3.2 | 0.00 | 0.03 | 0.00 | 88 | 1014.4 |
| 20260901224216 | 24 | 44 | 0.0 | 3.2 | 0.00 | 0.03 | 0.00 | 88 | 1014.4 |
| 20260901224015 | 24 | 12 | 0.0 | 3.2 | 0.00 | 0.03 | 0.00 | 89 | 1014.5 |
| 20260901223815 | 24 | 12 | 0.0 | 3.2 | 0.00 | 0.03 | 0.00 | 89 | 1014.4 |
| 20260901223615 | 24 | 12 | 1.6 | 3.2 | 0.00 | 0.03 | 0.00 | 88 | 1014.5 |
| 20260901223414 | 24 | 11 | 0.0 | 3.2 | 0.00 | 0.03 | 0.00 | 88 | 1014.5 |
| 20260901223214 | 24 | 14 | 0.0 | 6.4 | 0.00 | 0.03 | 0.00 | 88 | 1014.5 |
| 20260901223014 | 24 | 41 | 0.0 | 8.0 | 0.00 | 0.03 | 0.00 | 88 | 1014.5 |
| 20260901222814 | 24 | 22 | 0.0 | 8.0 | 0.00 | 0.03 | 0.00 | 87 | 1014.5 |
| 20260901222613 | 25 | 10 | 1.6 | 8.0 | 0.00 | 0.03 | 0.00 | 87 | 1014.5 |
| 20260901222413 | 25 | 29 | 3.2 | 8.0 | 0.00 | 0.03 | 0.00 | 87 | 1014.5 |
| 20260901222213 | 25 | 57 | 3.2 | 8.0 | 0.00 | 0.03 | 0.00 | 86 | 1014.5 |
| 20260901222012 | 25 | 39 | 1.6 | 8.0 | 0.00 | 0.03 | 0.00 | 86 | 1014.5 |
| 20260901221812 | 25 | 21 | 3.2 | 9.7 | 0.00 | 0.03 | 0.00 | 85 | 1014.5 |
| 20260901221612 | 25 | 56 | 3.2 | 9.7 | 0.00 | 0.03 | 0.00 | 84 | 1014.6 |
| 20260901221411 | 26 | 54 | 3.2 | 9.7 | 0.00 | 0.03 | 0.00 | 84 | 1014.6 |
| 20260901221211 | 26 | 28 | 4.8 | 9.7 | 0.00 | 0.03 | 0.00 | 84 | 1014.6 |
| 20260901221011 | 26 | 30 | 3.2 | 11.3 | 0.00 | 0.03 | 0.00 | 82 | 1014.6 |
| 20260901220810 | 26 | 45 | 3.2 | 12.9 | 0.00 | 0.03 | 0.00 | 82 | 1014.6 |
| 20260901220610 | 27 | 34 | 1.6 | 12.9 | 0.00 | 0.03 | 0.00 | 82 | 1014.6 |
| 20260901220410 | 27 | 30 | 3.2 | 12.9 | 0.00 | 0.03 | 0.00 | 82 | 1014.6 |
| 20260901220209 | 27 | 41 | 4.8 | 12.9 | 0.00 | 0.03 | 0.00 | 81 | 1014.6 |
| 20260901220009 | 27 | 30 | 3.2 | 11.3 | 0.00 | 0.03 | 0.00 | 80 | 1014.5 |
| 20260901215809 | 27 | 30 | 3.2 | 11.3 | 0.00 | 0.03 | 0.00 | 80 | 1014.6 |
| 20260901215609 | 27 | 37 | 4.8 | 9.7 | 0.00 | 0.03 | 0.00 | 80 | 1014.5 |
| 20260901215408 | 27 | 70 | 3.2 | 9.7 | 0.00 | 0.03 | 0.00 | 78 | 1014.5 |
| 20260901215208 | 28 | 71 | 3.2 | 9.7 | 0.00 | 0.03 | 0.00 | 78 | 1014.5 |
| 20260901215008 | 28 | 36 | 4.8 | 9.7 | 0.00 | 0.03 | 0.00 | 78 | 1014.5 |
| 20260901214807 | 28 | 31 | 3.2 | 8.0 | 0.00 | 0.03 | 0.00 | 77 | 1014.4 |
| 20260901214607 | 28 | 46 | 1.6 | 6.4 | 0.00 | 0.03 | 0.00 | 77 | 1014.3 |
| 20260901214407 | 28 | 68 | 1.6 | 6.4 | 0.00 | 0.03 | 0.00 | 77 | 1014.4 |
| 20260901213906 | 28 | 39 | 3.2 | 9.7 | 0.00 | 0.03 | 0.00 | 76 | 1014.3 |
| 20260901213706 | 28 | 39 | 0.0 | 9.7 | 0.00 | 0.03 | 0.00 | 76 | 1014.3 |
| 20260901213505 | 28 | 80 | 0.0 | 9.7 | 0.00 | 0.03 | 0.00 | 77 | 1014.3 |
| 20260901213305 | 28 | 70 | 1.6 | 9.7 | 0.00 | 0.03 | 0.00 | 77 | 1014.3 |
| 20260901213105 | 28 | 33 | 1.6 | 9.7 | 0.00 | 0.03 | 0.00 | 76 | 1014.3 |
| 20260901212904 | 28 | 20 | 1.6 | 8.0 | 0.00 | 0.03 | 0.00 | 77 | 1014.3 |
| 20260901212704 | 28 | 24 | 1.6 | 8.0 | 0.00 | 0.03 | 0.00 | 77 | 1014.3 |
| 20260901212504 | 28 | 33 | 1.6 | 9.7 | 0.00 | 0.03 | 0.00 | 77 | 1014.2 |
| 20260901212306 | 28 | 22 | 3.2 | 9.7 | 0.00 | 0.03 | 0.00 | 77 | 1014.2 |
| 20260901212103 | 28 | 50 | 3.2 | 9.7 | 0.00 | 0.03 | 0.00 | 77 | 1014.2 |
| 20260901211903 | 28 | 38 | 4.8 | 9.7 | 0.00 | 0.03 | 0.00 | 76 | 1014.1 |
| 20260901211702 | 28 | 38 | 4.8 | 9.7 | 0.00 | 0.03 | 0.00 | 76 | 1014.3 |
| 20260901211502 | 29 | 29 | 3.2 | 6.4 | 0.00 | 0.03 | 0.00 | 76 | 1014.2 |
| 20260901211302 | 29 | 53 | 3.2 | 6.4 | 0.00 | 0.03 | 0.00 | 75 | 1014.2 |
| 20260901211102 | 29 | 36 | 3.2 | 6.4 | 0.00 | 0.03 | 0.00 | 74 | 1014.1 |
| 20260901210901 | 30 | 35 | 3.2 | 6.4 | 0.00 | 0.03 | 0.00 | 74 | 1014.2 |
| 20260901210701 | 30 | 41 | 1.6 | 6.4 | 0.00 | 0.03 | 0.00 | 74 | 1014.1 |
| 20260901210501 | 30 | 16 | 1.6 | 4.8 | 0.00 | 0.03 | 0.00 | 74 | 1014.1 |
| 20260901210300 | 30 | 2 | 1.6 | 4.8 | 0.00 | 0.03 | 0.00 | 73 | 1014.2 |
| 20260901210100 | 30 | 4 | 3.2 | 4.8 | 0.00 | 0.03 | 0.00 | 73 | 1014.2 |
| 20260901205900 | 30 | 10 | 1.6 | 4.8 | 0.00 | 0.05 | 0.00 | 73 | 1014.2 |
| 20260901205659 | 30 | 15 | 1.6 | 4.8 | 0.00 | 0.05 | 0.00 | 75 | 1014.1 |
| 20260901205459 | 30 | 21 | 1.6 | 4.8 | 0.00 | 0.05 | 0.00 | 74 | 1014.1 |
| 20260901205259 | 30 | 26 | 1.6 | 4.8 | 0.00 | 0.05 | 0.00 | 74 | 1014.1 |
| 20260901205058 | 30 | 22 | 1.6 | 4.8 | 0.00 | 0.05 | 0.00 | 74 | 1014.1 |
| 20260901204858 | 30 | 11 | 1.6 | 8.0 | 0.00 | 0.05 | 0.00 | 74 | 1014.1 |
| 20260901204658 | 30 | 39 | 3.2 | 8.0 | 0.00 | 0.05 | 0.00 | 75 | 1014.0 |
| 20260901204457 | 29 | 57 | 3.2 | 8.0 | 0.00 | 0.05 | 0.00 | 74 | 1014.1 |
| 20260901204257 | 29 | 60 | 3.2 | 8.0 | 0.00 | 0.05 | 0.00 | 75 | 1014.1 |
| 20260901204057 | 29 | 29 | 4.8 | 8.0 | 0.00 | 0.05 | 0.00 | 74 | 1013.9 |
| 20260901203857 | 30 | 16 | 3.2 | 8.0 | 0.00 | 0.05 | 0.00 | 74 | 1014.0 |
| 20260901203656 | 30 | 47 | 3.2 | 4.8 | 0.00 | 0.05 | 0.00 | 73 | 1013.9 |
| 20260901203456 | 30 | 58 | 0.0 | 4.8 | 0.00 | 0.05 | 0.00 | 72 | 1013.9 |
| 20260901203256 | 30 | 31 | 1.6 | 4.8 | 0.00 | 0.05 | 0.00 | 73 | 1014.0 |
| 20260901203055 | 30 | 50 | 0.0 | 4.8 | 0.00 | 0.05 | 0.00 | 72 | 1014.0 |
| 20260901202855 | 30 | 35 | 0.0 | 3.2 | 0.00 | 0.05 | 0.00 | 73 | 1014.0 |
| 20260901202655 | 30 | 274 | 0.0 | 4.8 | 0.00 | 0.05 | 0.00 | 72 | 1014.0 |
| 20260901202454 | 30 | 244 | 1.6 | 4.8 | 0.00 | 0.05 | 0.00 | 72 | 1014.0 |
| 20260901202254 | 31 | 346 | 1.6 | 4.8 | 0.00 | 0.05 | 0.00 | 72 | 1014.0 |
| 20260901202054 | 31 | 298 | 1.6 | 4.8 | 0.00 | 0.05 | 0.00 | 72 | 1014.0 |
| 20260901201853 | 31 | 23 | 3.2 | 4.8 | 0.00 | 0.05 | 0.00 | 71 | 1014.0 |
| 20260901201653 | 31 | 29 | 1.6 | 4.8 | 0.00 | 0.05 | 0.00 | 73 | 1014.0 |
| 20260901201453 | 31 | 46 | 3.2 | 6.4 | 0.00 | 0.05 | 0.00 | 72 | 1014.0 |
| 20260901201253 | 30 | 64 | 1.6 | 6.4 | 0.00 | 0.05 | 0.00 | 72 | 1014.1 |
| 20260901201052 | 30 | 48 | 3.2 | 6.4 | 0.00 | 0.05 | 0.00 | 72 | 1014.1 |
| 20260901200852 | 30 | 40 | 3.2 | 6.4 | 0.00 | 0.05 | 0.00 | 73 | 1014.1 |
| 20260901200652 | 30 | 26 | 1.6 | 11.3 | 0.00 | 0.05 | 0.00 | 73 | 1014.1 |
| 20260901200451 | 30 | 307 | 1.6 | 11.3 | 0.00 | 0.05 | 0.00 | 73 | 1014.1 |
| 20260901200251 | 30 | 22 | 3.2 | 11.3 | 0.00 | 0.05 | 0.00 | 73 | 1014.1 |
| 20260901200051 | 30 | 48 | 4.8 | 11.3 | 0.00 | 0.05 | 0.00 | 74 | 1014.1 |
| 20260901195850 | 30 | 37 | 3.2 | 11.3 | 0.00 | 0.05 | 0.00 | 74 | 1014.1 |
| 20260901195650 | 30 | 23 | 3.2 | 9.7 | 0.00 | 0.05 | 0.00 | 74 | 1014.2 |
| 20260901195450 | 30 | 39 | 3.2 | 9.7 | 0.00 | 0.05 | 0.00 | 74 | 1014.2 |
| 20260901195249 | 30 | 40 | 3.2 | 9.7 | 0.00 | 0.05 | 0.00 | 75 | 1014.2 |
| 20260901195049 | 29 | 45 | 3.2 | 8.0 | 0.00 | 0.05 | 0.00 | 76 | 1014.3 |
| 20260901194849 | 28 | 49 | 3.2 | 8.0 | 0.00 | 0.05 | 0.00 | 76 | 1014.3 |
| 20260901194648 | 28 | 58 | 3.2 | 8.0 | 0.00 | 0.05 | 0.00 | 76 | 1014.3 |
| 20260901194448 | 29 | 73 | 3.2 | 8.0 | 0.00 | 0.05 | 0.00 | 76 | 1014.4 |
| 20260901194248 | 29 | 48 | 1.6 | 8.0 | 0.00 | 0.05 | 0.00 | 76 | 1014.3 |
| 20260901194048 | 29 | 23 | 1.6 | 8.0 | 0.00 | 0.05 | 0.00 | 77 | 1014.3 |
| 20260901193847 | 29 | 16 | 1.6 | 9.7 | 0.00 | 0.05 | 0.00 | 77 | 1014.2 |
| 20260901193647 | 28 | 4 | 1.6 | 9.7 | 0.00 | 0.05 | 0.00 | 77 | 1014.2 |
| 20260901193447 | 28 | 43 | 1.6 | 9.7 | 0.00 | 0.05 | 0.00 | 77 | 1014.3 |
| 20260901193246 | 28 | 39 | 3.2 | 9.7 | 0.00 | 0.05 | 0.00 | 77 | 1014.2 |
| 20260901193046 | 28 | 18 | 1.6 | 9.7 | 0.00 | 0.05 | 0.00 | 76 | 1014.2 |
| 20260901192846 | 29 | 29 | 1.6 | 9.7 | 0.00 | 0.05 | 0.00 | 76 | 1014.3 |
| 20260901192645 | 29 | 53 | 3.2 | 9.7 | 0.00 | 0.05 | 0.00 | 76 | 1014.3 |
| 20260901192445 | 29 | 44 | 3.2 | 9.7 | 0.00 | 0.05 | 0.00 | 77 | 1014.3 |
| 20260901192245 | 29 | 29 | 3.2 | 9.7 | 0.00 | 0.05 | 0.00 | 77 | 1014.3 |
| 20260901192044 | 29 | 14 | 3.2 | 9.7 | 0.00 | 0.05 | 0.00 | 76 | 1014.3 |
| 20260901191844 | 29 | 33 | 3.2 | 8.0 | 0.00 | 0.05 | 0.00 | 76 | 1014.4 |
| 20260901191644 | 29 | 48 | 3.2 | 8.0 | 0.00 | 0.05 | 0.00 | 75 | 1014.4 |
| 20260901191443 | 29 | 28 | 3.2 | 8.0 | 0.00 | 0.05 | 0.00 | 75 | 1014.4 |
| 20260901191243 | 30 | 14 | 3.2 | 8.0 | 0.00 | 0.05 | 0.00 | 75 | 1014.5 |
| 20260901191043 | 30 | 10 | 3.2 | 8.0 | 0.00 | 0.05 | 0.00 | 74 | 1014.4 |
| 20260901190843 | 30 | 21 | 3.2 | 8.0 | 0.00 | 0.05 | 0.00 | 73 | 1014.4 |
| 20260901190642 | 31 | 38 | 1.6 | 8.0 | 0.00 | 0.05 | 0.00 | 72 | 1014.3 |
| 20260901190442 | 31 | 31 | 3.2 | 8.0 | 0.00 | 0.05 | 0.00 | 72 | 1014.3 |
| 20260901190242 | 31 | 237 | 0.0 | 4.8 | 0.00 | 0.05 | 0.00 | 72 | 1014.4 |
| 20260901190041 | 32 | 228 | 1.6 | 4.8 | 0.00 | 0.05 | 0.00 | 72 | 1014.3 |
| 20260901185841 | 32 | 223 | 1.6 | 4.8 | 0.00 | 0.08 | 0.00 | 71 | 1014.3 |
| 20260901185641 | 31 | 162 | 0.0 | 3.2 | 0.00 | 0.08 | 0.00 | 72 | 1014.2 |
| 20260901185440 | 31 | 136 | 0.0 | 3.2 | 0.00 | 0.08 | 0.00 | 72 | 1014.2 |
| 20260901185240 | 31 | 136 | 0.0 | 3.2 | 0.00 | 0.08 | 0.00 | 72 | 1014.2 |
| 20260901185040 | 31 | 129 | 0.0 | 6.4 | 0.00 | 0.08 | 0.00 | 72 | 1014.2 |
| 20260901184839 | 31 | 18 | 0.0 | 6.4 | 0.00 | 0.08 | 0.00 | 73 | 1014.2 |
| 20260901184639 | 31 | 5 | 0.0 | 6.4 | 0.00 | 0.08 | 0.00 | 72 | 1014.2 |
| 20260901184439 | 31 | 359 | 1.6 | 6.4 | 0.00 | 0.08 | 0.00 | 73 | 1014.2 |
| 20260901184239 | 31 | 58 | 1.6 | 6.4 | 0.00 | 0.08 | 0.00 | 72 | 1014.2 |
| 20260901184038 | 31 | 15 | 0.0 | 6.4 | 0.00 | 0.08 | 0.00 | 72 | 1014.2 |
| 20260901183838 | 31 | 15 | 0.0 | 3.2 | 0.00 | 0.08 | 0.00 | 72 | 1014.2 |
| 20260901183638 | 31 | 15 | 1.6 | 3.2 | 0.00 | 0.08 | 0.00 | 72 | 1014.2 |
| 20260901183437 | 31 | 15 | 1.6 | 3.2 | 0.00 | 0.08 | 0.00 | 72 | 1014.2 |
| 20260901183237 | 31 | 17 | 1.6 | 6.4 | 0.00 | 0.08 | 0.00 | 73 | 1014.3 |
| 20260901183037 | 31 | 8 | 1.6 | 8.0 | 0.00 | 0.08 | 0.00 | 73 | 1014.2 |
| 20260901182836 | 31 | 7 | 0.0 | 8.0 | 0.00 | 0.08 | 0.00 | 74 | 1014.2 |
| 20260901182636 | 31 | 46 | 0.0 | 8.0 | 0.00 | 0.08 | 0.00 | 74 | 1014.2 |
| 20260901182436 | 31 | 39 | 1.6 | 8.0 | 0.00 | 0.08 | 0.00 | 74 | 1014.3 |
| 20260901182235 | 31 | 22 | 3.2 | 8.0 | 0.00 | 0.08 | 0.00 | 73 | 1014.3 |
| 20260901182035 | 31 | 9 | 3.2 | 6.4 | 0.00 | 0.08 | 0.00 | 72 | 1014.3 |
| 20260901181835 | 31 | 350 | 1.6 | 4.8 | 0.00 | 0.08 | 0.00 | 72 | 1014.3 |
| 20260901181634 | 31 | 347 | 1.6 | 3.2 | 0.00 | 0.08 | 0.00 | 72 | 1014.4 |
| 20260901181434 | 31 | 327 | 1.6 | 3.2 | 0.00 | 0.08 | 0.00 | 71 | 1014.5 |
| 20260901181234 | 31 | 322 | 1.6 | 3.2 | 0.00 | 0.08 | 0.00 | 73 | 1014.4 |
| 20260901181033 | 31 | 244 | 1.6 | 3.2 | 0.00 | 0.08 | 0.00 | 73 | 1014.4 |
| 20260901180833 | 31 | 129 | 1.6 | 3.2 | 0.00 | 0.08 | 0.00 | 75 | 1014.4 |
| 20260901180633 | 30 | 252 | 0.0 | 3.2 | 0.00 | 0.08 | 0.00 | 75 | 1014.5 |
| 20260901180433 | 30 | 253 | 0.0 | 3.2 | 0.00 | 0.08 | 0.00 | 75 | 1014.5 |
| 20260901180232 | 30 | 294 | 0.0 | 4.8 | 0.00 | 0.08 | 0.00 | 75 | 1014.5 |
| 20260901180032 | 30 | 328 | 0.0 | 6.4 | 0.00 | 0.08 | 0.00 | 76 | 1014.5 |
| 20260901175832 | 30 | 254 | 1.6 | 6.4 | 0.00 | 0.08 | 0.00 | 76 | 1014.5 |
| 20260901175631 | 30 | 222 | 1.6 | 6.4 | 0.00 | 0.08 | 0.00 | 77 | 1014.4 |
| 20260901175431 | 30 | 186 | 1.6 | 8.0 | 0.00 | 0.08 | 0.00 | 77 | 1014.4 |
| 20260901175231 | 29 | 207 | 1.6 | 8.0 | 0.00 | 0.08 | 0.00 | 78 | 1014.3 |
| 20260901175030 | 29 | 154 | 1.6 | 8.0 | 0.00 | 0.08 | 0.00 | 78 | 1014.4 |
| 20260901174830 | 29 | 196 | 1.6 | 8.0 | 0.00 | 0.08 | 0.00 | 78 | 1014.3 |
| 20260901174630 | 29 | 207 | 1.6 | 8.0 | 0.00 | 0.08 | 0.00 | 78 | 1014.3 |
| 20260901174429 | 29 | 211 | 1.6 | 8.0 | 0.00 | 0.08 | 0.00 | 77 | 1014.2 |
| 20260901174229 | 29 | 209 | 1.6 | 8.0 | 0.00 | 0.08 | 0.00 | 77 | 1014.3 |
| 20260901174029 | 29 | 206 | 3.2 | 8.0 | 0.00 | 0.08 | 0.00 | 78 | 1014.2 |
| 20260901173829 | 29 | 206 | 3.2 | 8.0 | 0.00 | 0.08 | 0.00 | 77 | 1014.2 |
| 20260901173628 | 29 | 187 | 1.6 | 6.4 | 0.00 | 0.08 | 0.00 | 77 | 1014.1 |
| 20260901173428 | 29 | 184 | 1.6 | 6.4 | 0.00 | 0.08 | 0.00 | 77 | 1014.2 |
| 20260901173228 | 29 | 226 | 1.6 | 11.3 | 0.00 | 0.08 | 0.00 | 77 | 1014.2 |
| 20260901173027 | 29 | 217 | 1.6 | 11.3 | 0.00 | 0.08 | 0.00 | 77 | 1014.1 |
| 20260901172827 | 29 | 188 | 1.6 | 11.3 | 0.00 | 0.08 | 0.00 | 78 | 1014.1 |
| 20260901172627 | 29 | 199 | 4.8 | 11.3 | 0.00 | 0.08 | 0.00 | 77 | 1014.0 |
| 20260901172426 | 29 | 220 | 3.2 | 11.3 | 0.00 | 0.08 | 0.00 | 77 | 1014.0 |
| 20260901172226 | 29 | 226 | 1.6 | 6.4 | 0.00 | 0.08 | 0.00 | 76 | 1014.1 |
| 20260901172026 | 29 | 215 | 3.2 | 6.4 | 0.00 | 0.08 | 0.00 | 76 | 1014.0 |
| 20260901171825 | 30 | 209 | 3.2 | 6.4 | 0.00 | 0.08 | 0.00 | 76 | 1014.0 |
| 20260901171625 | 30 | 198 | 1.6 | 6.4 | 0.00 | 0.08 | 0.00 | 76 | 1014.1 |
| 20260901171425 | 30 | 219 | 1.6 | 4.8 | 0.00 | 0.08 | 0.00 | 76 | 1014.1 |
| 20260901171224 | 30 | 216 | 1.6 | 4.8 | 0.00 | 0.08 | 0.00 | 76 | 1014.1 |
| 20260901171024 | 30 | 221 | 1.6 | 6.4 | 0.00 | 0.08 | 0.00 | 76 | 1014.1 |
| 20260901170824 | 30 | 234 | 1.6 | 6.4 | 0.00 | 0.08 | 0.00 | 76 | 1014.1 |
| 20260901170624 | 30 | 187 | 1.6 | 6.4 | 0.00 | 0.08 | 0.00 | 75 | 1014.1 |
| 20260901170423 | 30 | 208 | 3.2 | 6.4 | 0.00 | 0.08 | 0.00 | 75 | 1014.1 |
| 20260901170223 | 30 | 195 | 3.2 | 6.4 | 0.00 | 0.08 | 0.00 | 75 | 1014.1 |
| 20260901170023 | 30 | 217 | 1.6 | 6.4 | 0.00 | 0.08 | 0.00 | 76 | 1014.1 |
| 20260901165822 | 30 | 182 | 1.6 | 6.4 | 0.00 | 0.08 | 0.00 | 76 | 1014.0 |
| 20260901165622 | 30 | 191 | 3.2 | 6.4 | 0.00 | 0.08 | 0.00 | 75 | 1014.1 |
| 20260901165422 | 30 | 171 | 1.6 | 8.0 | 0.00 | 0.08 | 0.00 | 75 | 1014.0 |
| 20260901165221 | 30 | 0 | 0.0 | 8.0 | 0.00 | 0.08 | 0.00 | 75 | 1014.1 |
| 20260901165021 | 30 | 222 | 0.0 | 8.0 | 0.00 | 0.08 | 0.00 | 75 | 1014.1 |
| 20260901164821 | 30 | 231 | 3.2 | 8.0 | 0.00 | 0.08 | 0.00 | 75 | 1014.0 |
| 20260901164620 | 30 | 184 | 3.2 | 8.0 | 0.00 | 0.08 | 0.00 | 74 | 1013.9 |
| 20260901164420 | 30 | 159 | 1.6 | 8.0 | 0.00 | 0.08 | 0.00 | 75 | 1014.0 |
| 20260901164220 | 30 | 214 | 1.6 | 8.0 | 0.00 | 0.08 | 0.00 | 75 | 1013.9 |
| 20260901164019 | 30 | 242 | 1.6 | 8.0 | 0.00 | 0.08 | 0.00 | 75 | 1013.9 |
| 20260901163819 | 30 | 219 | 3.2 | 8.0 | 0.00 | 0.08 | 0.00 | 74 | 1013.8 |
| 20260901163619 | 30 | 232 | 1.6 | 6.4 | 0.00 | 0.08 | 0.00 | 75 | 1013.9 |
| 20260901163419 | 30 | 324 | 1.6 | 4.8 | 0.00 | 0.08 | 0.00 | 75 | 1013.8 |
| 20260901163218 | 30 | 248 | 1.6 | 6.4 | 0.00 | 0.08 | 0.00 | 75 | 1013.8 |
| 20260901163018 | 30 | 260 | 1.6 | 6.4 | 0.00 | 0.08 | 0.00 | 74 | 1013.8 |
| 20260901162818 | 30 | 344 | 1.6 | 8.0 | 0.00 | 0.08 | 0.00 | 75 | 1013.7 |
| 20260901162617 | 30 | 173 | 3.2 | 8.0 | 0.00 | 0.08 | 0.00 | 76 | 1013.7 |
| 20260901162417 | 30 | 222 | 3.2 | 8.0 | 0.00 | 0.08 | 0.00 | 76 | 1013.8 |
| 20260901162217 | 30 | 181 | 3.2 | 8.0 | 0.00 | 0.08 | 0.00 | 76 | 1013.9 |
| 20260901162016 | 30 | 206 | 3.2 | 8.0 | 0.00 | 0.08 | 0.00 | 76 | 1013.9 |
| 20260901161816 | 30 | 210 | 3.2 | 8.0 | 0.00 | 0.08 | 0.00 | 76 | 1013.9 |
| 20260901161616 | 30 | 185 | 3.2 | 8.0 | 0.00 | 0.08 | 0.00 | 77 | 1013.8 |
| 20260901161415 | 30 | 195 | 3.2 | 12.9 | 0.00 | 0.08 | 0.00 | 77 | 1013.8 |
| 20260901161215 | 29 | 204 | 1.6 | 12.9 | 0.00 | 0.08 | 0.00 | 77 | 1013.9 |
| 20260901161015 | 29 | 185 | 1.6 | 12.9 | 0.00 | 0.08 | 0.00 | 77 | 1013.9 |
| 20260901160814 | 30 | 164 | 3.2 | 12.9 | 0.00 | 0.08 | 0.00 | 76 | 1013.9 |
| 20260901160614 | 30 | 208 | 3.2 | 12.9 | 0.00 | 0.08 | 0.00 | 77 | 1013.9 |
| 20260901160414 | 30 | 122 | 0.0 | 8.0 | 0.00 | 0.08 | 0.00 | 78 | 1014.0 |
| 20260901160214 | 29 | 169 | 0.0 | 8.0 | 0.00 | 0.08 | 0.00 | 77 | 1014.0 |
| 20260901160013 | 29 | 207 | 1.6 | 8.0 | 0.00 | 0.08 | 0.00 | 78 | 1014.1 |
| 20260901155813 | 29 | 218 | 4.8 | 8.0 | 0.00 | 0.33 | 0.00 | 77 | 1014.2 |
| 20260901155613 | 30 | 226 | 4.8 | 8.0 | 0.00 | 0.33 | 0.00 | 77 | 1014.1 |
| 20260901155412 | 30 | 227 | 3.2 | 8.0 | 0.00 | 0.33 | 0.00 | 77 | 1014.1 |
| 20260901155212 | 30 | 178 | 1.6 | 6.4 | 0.00 | 0.33 | 0.00 | 78 | 1014.1 |
| 20260901155012 | 29 | 180 | 1.6 | 6.4 | 0.00 | 0.33 | 0.00 | 77 | 1014.1 |
| 20260901154811 | 29 | 240 | 1.6 | 9.7 | 0.00 | 0.33 | 0.00 | 77 | 1014.1 |
| 20260901154611 | 29 | 250 | 3.2 | 9.7 | 0.00 | 0.33 | 0.00 | 78 | 1014.1 |
| 20260901154411 | 29 | 286 | 1.6 | 9.7 | 0.00 | 0.33 | 0.00 | 78 | 1014.1 |
| 20260901154210 | 29 | 271 | 1.6 | 9.7 | 0.00 | 0.33 | 0.00 | 78 | 1014.0 |
| 20260901154010 | 29 | 215 | 3.2 | 9.7 | 0.00 | 0.33 | 0.00 | 78 | 1014.0 |
| 20260901153810 | 29 | 210 | 3.2 | 8.0 | 0.00 | 0.33 | 0.00 | 78 | 1014.1 |
| 20260901153609 | 29 | 182 | 3.2 | 8.0 | 0.00 | 0.33 | 0.00 | 78 | 1014.0 |
| 20260901153409 | 29 | 193 | 1.6 | 8.0 | 0.00 | 0.33 | 0.00 | 78 | 1014.1 |
| 20260901153209 | 29 | 198 | 3.2 | 8.0 | 0.00 | 0.33 | 0.00 | 78 | 1014.0 |
| 20260901153009 | 29 | 202 | 3.2 | 8.0 | 0.00 | 0.33 | 0.00 | 77 | 1014.1 |
| 20260901152808 | 29 | 214 | 3.2 | 8.0 | 0.00 | 0.33 | 0.00 | 77 | 1014.0 |
| 20260901152608 | 29 | 193 | 1.6 | 6.4 | 0.00 | 0.33 | 0.00 | 78 | 1014.0 |
| 20260901152408 | 28 | 220 | 0.0 | 6.4 | 0.00 | 0.33 | 0.00 | 78 | 1013.9 |
| 20260901152207 | 28 | 188 | 1.6 | 6.4 | 0.00 | 0.33 | 0.00 | 78 | 1013.9 |
| 20260901152007 | 28 | 222 | 3.2 | 6.4 | 0.00 | 0.33 | 0.00 | 78 | 1014.0 |
| 20260901151807 | 28 | 257 | 1.6 | 6.4 | 0.00 | 0.33 | 0.00 | 79 | 1014.0 |
| 20260901151606 | 28 | 225 | 1.6 | 6.4 | 0.00 | 0.33 | 0.00 | 79 | 1014.0 |
| 20260901151406 | 28 | 205 | 1.6 | 6.4 | 0.00 | 0.33 | 0.00 | 80 | 1014.1 |
| 20260901151206 | 28 | 218 | 1.6 | 6.4 | 0.00 | 0.33 | 0.00 | 79 | 1014.1 |
| 20260901151005 | 28 | 212 | 3.2 | 6.4 | 0.00 | 0.33 | 0.00 | 79 | 1014.1 |
| 20260901150805 | 28 | 235 | 0.0 | 6.4 | 0.00 | 0.33 | 0.00 | 79 | 1014.2 |
| 20260901150605 | 28 | 238 | 0.0 | 6.4 | 0.00 | 0.33 | 0.00 | 80 | 1014.2 |
| 20260901150405 | 28 | 189 | 0.0 | 6.4 | 0.00 | 0.33 | 0.00 | 80 | 1014.2 |
| 20260901150204 | 28 | 174 | 1.6 | 6.4 | 0.00 | 0.33 | 0.00 | 81 | 1014.2 |
| 20260901150004 | 28 | 78 | 1.6 | 6.4 | 0.00 | 0.33 | 0.00 | 81 | 1014.2 |
| 20260901145804 | 28 | 95 | 1.6 | 6.4 | 0.00 | 0.43 | 0.00 | 80 | 1014.2 |
| 20260901145604 | 28 | 133 | 0.0 | 3.2 | 0.00 | 0.43 | 0.00 | 80 | 1014.2 |
| 20260901145403 | 28 | 143 | 0.0 | 3.2 | 0.00 | 0.43 | 0.00 | 81 | 1014.2 |
| 20260901145203 | 27 | 154 | 0.0 | 3.2 | 0.00 | 0.43 | 0.00 | 81 | 1014.1 |
| 20260901145002 | 27 | 199 | 1.6 | 4.8 | 0.00 | 0.43 | 0.00 | 82 | 1014.1 |
| 20260901144802 | 27 | 250 | 1.6 | 4.8 | 0.00 | 0.43 | 0.00 | 83 | 1014.1 |
| 20260901144602 | 27 | 237 | 1.6 | 4.8 | 0.00 | 0.43 | 0.00 | 84 | 1014.1 |
| 20260901144401 | 27 | 76 | 1.6 | 6.4 | 0.00 | 0.43 | 0.00 | 84 | 1014.0 |
| 20260901144201 | 27 | 70 | 0.0 | 6.4 | 0.00 | 0.43 | 0.00 | 84 | 1014.1 |
| 20260901144001 | 26 | 88 | 1.6 | 6.4 | 0.00 | 0.43 | 0.00 | 84 | 1014.0 |
| 20260901143800 | 26 | 197 | 3.2 | 6.4 | 0.00 | 0.43 | 0.00 | 84 | 1014.0 |
| 20260901143600 | 26 | 225 | 3.2 | 6.4 | 0.00 | 0.43 | 0.00 | 84 | 1013.9 |
| 20260901143400 | 26 | 221 | 3.2 | 4.8 | 0.00 | 0.43 | 0.00 | 84 | 1013.8 |
| 20260901143200 | 26 | 239 | 0.0 | 4.8 | 0.00 | 0.43 | 0.00 | 85 | 1013.8 |
| 20260901142959 | 26 | 240 | 0.0 | 1.6 | 0.00 | 0.43 | 0.00 | 85 | 1013.7 |
| 20260901142759 | 26 | 240 | 0.0 | 1.6 | 0.00 | 0.43 | 0.00 | 85 | 1013.7 |
| 20260901142559 | 26 | 240 | 0.0 | 4.8 | 0.00 | 0.43 | 0.00 | 85 | 1013.8 |
| 20260901142358 | 26 | 240 | 0.0 | 4.8 | 0.00 | 0.43 | 0.00 | 85 | 1013.9 |
| 20260901142158 | 26 | 240 | 0.0 | 4.8 | 0.00 | 0.43 | 0.00 | 85 | 1014.0 |
| 20260901141958 | 26 | 240 | 0.0 | 4.8 | 0.00 | 0.43 | 0.00 | 86 | 1014.1 |
| 20260901141757 | 26 | 242 | 1.6 | 4.8 | 0.00 | 0.43 | 0.00 | 85 | 1014.1 |
| 20260901141557 | 26 | 246 | 0.0 | 3.2 | 0.00 | 0.43 | 0.00 | 85 | 1014.1 |
| 20260901141357 | 26 | 247 | 0.0 | 3.2 | 0.00 | 0.43 | 0.00 | 86 | 1014.0 |
| 20260901141156 | 26 | 247 | 0.0 | 3.2 | 0.00 | 0.43 | 0.00 | 86 | 1014.0 |
| 20260901140956 | 26 | 247 | 0.0 | 4.8 | 0.00 | 0.43 | 0.00 | 86 | 1014.0 |
| 20260901140756 | 26 | 190 | 1.6 | 4.8 | 0.00 | 0.43 | 0.00 | 86 | 1014.0 |
| 20260901140556 | 25 | 70 | 0.0 | 4.8 | 0.00 | 0.43 | 0.00 | 86 | 1014.0 |
| 20260901140355 | 25 | 63 | 0.0 | 4.8 | 0.00 | 0.43 | 0.00 | 85 | 1013.9 |
| 20260901140155 | 26 | 0 | 0.0 | 4.8 | 0.00 | 0.43 | 0.00 | 86 | 1013.8 |
| 20260901135955 | 25 | 37 | 0.0 | 4.8 | 0.00 | 0.43 | 0.00 | 86 | 1013.8 |
| 20260901135754 | 25 | 38 | 0.0 | 4.8 | 0.00 | 0.43 | 0.00 | 86 | 1013.7 |
| 20260901135554 | 25 | 37 | 0.0 | 4.8 | 0.00 | 0.43 | 0.00 | 86 | 1013.7 |
| 20260901135354 | 25 | 35 | 0.0 | 4.8 | 0.00 | 0.43 | 0.00 | 86 | 1013.7 |
| 20260901135153 | 25 | 36 | 0.0 | 1.6 | 0.00 | 0.43 | 0.00 | 86 | 1013.6 |
| 20260901134953 | 25 | 36 | 0.0 | 1.6 | 0.00 | 0.43 | 0.00 | 86 | 1013.6 |
| 20260901134753 | 25 | 36 | 0.0 | 1.6 | 0.00 | 0.43 | 0.00 | 87 | 1013.6 |
| 20260901134552 | 25 | 35 | 0.0 | 1.6 | 0.00 | 0.43 | 0.00 | 86 | 1013.7 |
| 20260901134352 | 25 | 36 | 0.0 | 3.2 | 0.00 | 0.43 | 0.00 | 87 | 1013.7 |
| 20260901134152 | 25 | 36 | 0.0 | 4.8 | 0.00 | 0.43 | 0.00 | 87 | 1013.7 |
| 20260901133951 | 25 | 36 | 0.0 | 4.8 | 0.00 | 0.43 | 0.00 | 86 | 1013.8 |
| 20260901133751 | 25 | 86 | 0.0 | 4.8 | 0.00 | 0.43 | 0.00 | 87 | 1013.9 |
| 20260901133551 | 25 | 132 | 0.0 | 4.8 | 0.00 | 0.43 | 0.00 | 87 | 1013.9 |
| 20260901133351 | 25 | 206 | 0.0 | 4.8 | 0.00 | 0.43 | 0.00 | 87 | 1013.9 |
| 20260901133150 | 25 | 259 | 0.0 | 3.2 | 0.00 | 0.43 | 0.00 | 87 | 1013.9 |
| 20260901132950 | 25 | 129 | 1.6 | 3.2 | 0.00 | 0.43 | 0.00 | 87 | 1013.9 |
| 20260901132750 | 25 | 109 | 0.0 | 3.2 | 0.00 | 0.43 | 0.00 | 87 | 1013.9 |
| 20260901132549 | 25 | 73 | 0.0 | 4.8 | 0.00 | 0.43 | 0.00 | 87 | 1013.9 |
| 20260901132349 | 25 | 105 | 0.0 | 6.4 | 0.00 | 0.43 | 0.00 | 87 | 1013.9 |
| 20260901132149 | 25 | 120 | 0.0 | 6.4 | 0.00 | 0.43 | 0.00 | 88 | 1013.9 |
| 20260901131948 | 25 | 96 | 1.6 | 6.4 | 0.00 | 0.43 | 0.00 | 87 | 1013.9 |
| 20260901131748 | 25 | 135 | 1.6 | 6.4 | 0.00 | 0.43 | 0.00 | 87 | 1013.9 |
| 20260901131548 | 25 | 151 | 1.6 | 6.4 | 0.00 | 0.43 | 0.00 | 87 | 1013.9 |
| 20260901131347 | 25 | 242 | 1.6 | 6.4 | 0.00 | 0.43 | 0.00 | 87 | 1013.9 |
| 20260901131147 | 25 | 205 | 1.6 | 6.4 | 0.00 | 0.43 | 0.00 | 87 | 1014.0 |
| 20260901130947 | 25 | 62 | 3.2 | 8.0 | 0.00 | 0.43 | 0.00 | 87 | 1014.0 |
| 20260901130746 | 25 | 177 | 1.6 | 9.7 | 0.00 | 0.43 | 0.00 | 87 | 1014.0 |
| 20260901130546 | 25 | 249 | 1.6 | 9.7 | 0.00 | 0.43 | 0.00 | 88 | 1014.0 |
| 20260901130346 | 25 | 247 | 1.6 | 9.7 | 0.00 | 0.43 | 0.00 | 88 | 1014.0 |
| 20260901130146 | 25 | 186 | 1.6 | 9.7 | 0.00 | 0.43 | 0.00 | 88 | 1014.0 |
| 20260901125945 | 25 | 38 | 1.6 | 6.4 | 0.00 | 0.43 | 0.00 | 89 | 1014.1 |
| 20260901125745 | 25 | 358 | 1.6 | 6.4 | 0.00 | 0.43 | 0.00 | 89 | 1014.1 |
| 20260901125545 | 25 | 7 | 1.6 | 6.4 | 0.00 | 0.43 | 0.00 | 89 | 1014.1 |
| 20260901125344 | 24 | 62 | 1.6 | 6.4 | 0.00 | 0.43 | 0.00 | 89 | 1014.1 |
| 20260901125144 | 24 | 169 | 1.6 | 6.4 | 0.00 | 0.43 | 0.00 | 90 | 1014.2 |
| 20260901124944 | 24 | 124 | 1.6 | 6.4 | 0.00 | 0.43 | 0.00 | 90 | 1014.2 |
| 20260901124743 | 24 | 245 | 1.6 | 6.4 | 0.00 | 0.43 | 0.00 | 90 | 1014.3 |
| 20260901124543 | 24 | 230 | 0.0 | 8.0 | 0.00 | 0.43 | 0.00 | 91 | 1014.3 |
| 20260901124343 | 23 | 197 | 1.6 | 9.7 | 0.00 | 0.43 | 0.00 | 92 | 1014.3 |
| 20260901124142 | 23 | 75 | 1.6 | 9.7 | 0.00 | 0.43 | 0.00 | 92 | 1014.3 |
| 20260901123942 | 23 | 81 | 1.6 | 9.7 | 0.00 | 0.43 | 0.00 | 92 | 1014.2 |
| 20260901123742 | 23 | 163 | 1.6 | 9.7 | 0.00 | 0.43 | 0.00 | 93 | 1014.3 |
| 20260901123542 | 23 | 208 | 1.6 | 9.7 | 0.00 | 0.43 | 0.00 | 93 | 1014.3 |
| 20260901123341 | 23 | 193 | 1.6 | 8.0 | 0.00 | 0.43 | 0.00 | 94 | 1014.2 |
| 20260901123141 | 22 | 127 | 3.2 | 8.0 | 0.00 | 0.43 | 0.00 | 94 | 1014.2 |
| 20260901122941 | 22 | 127 | 1.6 | 8.0 | 0.00 | 0.43 | 0.00 | 95 | 1014.2 |
| 20260901122740 | 22 | 146 | 1.6 | 8.0 | 0.00 | 0.43 | 0.00 | 95 | 1014.3 |
| 20260901122540 | 22 | 287 | 1.6 | 6.4 | 0.00 | 0.43 | 0.00 | 95 | 1014.3 |
| 20260901122340 | 22 | 275 | 0.0 | 6.4 | 0.00 | 0.43 | 0.00 | 96 | 1014.2 |
| 20260901122139 | 22 | 179 | 1.6 | 6.4 | 0.00 | 0.43 | 0.00 | 96 | 1014.2 |
| 20260901121939 | 22 | 231 | 1.6 | 6.4 | 0.00 | 0.43 | 0.00 | 96 | 1014.2 |
| 20260901121739 | 22 | 234 | 1.6 | 4.8 | 0.00 | 0.43 | 0.00 | 96 | 1014.2 |
| 20260901121538 | 22 | 234 | 0.0 | 4.8 | 0.00 | 0.43 | 0.00 | 96 | 1014.2 |
| 20260901121338 | 22 | 234 | 0.0 | 4.8 | 0.00 | 0.43 | 0.00 | 97 | 1014.2 |
| 20260901121138 | 22 | 270 | 1.6 | 4.8 | 0.00 | 0.43 | 0.00 | 97 | 1014.2 |
| 20260901120937 | 22 | 352 | 0.0 | 6.4 | 0.00 | 0.43 | 0.00 | 97 | 1014.2 |
| 20260901120737 | 22 | 357 | 0.0 | 6.4 | 0.00 | 0.43 | 0.00 | 97 | 1014.2 |
| 20260901120537 | 22 | 16 | 0.0 | 6.4 | 0.00 | 0.43 | 0.00 | 97 | 1014.1 |
| 20260901120337 | 22 | 189 | 1.6 | 6.4 | 0.00 | 0.43 | 0.00 | 97 | 1014.1 |
| 20260901120136 | 21 | 218 | 1.6 | 6.4 | 0.00 | 0.43 | 0.00 | 97 | 1014.1 |
| 20260901115936 | 21 | 226 | 1.6 | 4.8 | 0.00 | 0.43 | 0.00 | 97 | 1014.1 |
| 20260901115736 | 21 | 191 | 0.0 | 3.2 | 0.00 | 0.43 | 0.00 | 97 | 1013.9 |
| 20260901115535 | 21 | 126 | 0.0 | 4.8 | 0.00 | 0.43 | 0.00 | 97 | 1013.9 |
| 20260901115335 | 21 | 126 | 0.0 | 4.8 | 0.00 | 0.43 | 0.00 | 97 | 1014.0 |
| 20260901115135 | 21 | 126 | 0.0 | 4.8 | 0.00 | 0.43 | 0.00 | 97 | 1013.9 |
| 20260901114934 | 21 | 128 | 1.6 | 4.8 | 0.00 | 0.43 | 0.00 | 97 | 1014.0 |
| 20260901114734 | 21 | 214 | 0.0 | 4.8 | 0.00 | 0.43 | 0.00 | 97 | 1014.0 |
| 20260901114534 | 21 | 244 | 0.0 | 4.8 | 0.00 | 0.43 | 0.00 | 98 | 1014.0 |
| 20260901114333 | 21 | 242 | 1.6 | 4.8 | 0.00 | 0.43 | 0.00 | 98 | 1013.9 |
| 20260901114133 | 21 | 230 | 1.6 | 4.8 | 0.00 | 0.43 | 0.00 | 98 | 1013.9 |
| 20260901113933 | 21 | 204 | 0.0 | 4.8 | 0.00 | 0.43 | 0.00 | 98 | 1013.9 |
| 20260901113733 | 21 | 118 | 0.0 | 4.8 | 0.00 | 0.43 | 0.00 | 98 | 1013.9 |
| 20260901113532 | 21 | 122 | 0.0 | 4.8 | 0.00 | 0.43 | 0.00 | 98 | 1013.9 |
| 20260901113332 | 21 | 173 | 0.0 | 4.8 | 0.00 | 0.43 | 0.00 | 98 | 1013.9 |
| 20260901113132 | 21 | 194 | 0.0 | 4.8 | 0.00 | 0.43 | 0.00 | 98 | 1013.9 |
| 20260901112931 | 21 | 164 | 1.6 | 4.8 | 0.00 | 0.43 | 0.00 | 98 | 1013.8 |
| 20260901112731 | 21 | 0 | 0.0 | 4.8 | 0.00 | 0.43 | 0.00 | 98 | 1013.8 |
| 20260901112531 | 21 | 245 | 0.0 | 4.8 | 0.00 | 0.43 | 0.00 | 98 | 1013.8 |
| 20260901112330 | 21 | 254 | 1.6 | 4.8 | 0.00 | 0.43 | 0.00 | 98 | 1013.8 |
| 20260901112130 | 21 | 261 | 1.6 | 4.8 | 0.00 | 0.43 | 0.00 | 97 | 1013.8 |
| 20260901111930 | 21 | 261 | 0.0 | 3.2 | 0.00 | 0.43 | 0.00 | 97 | 1013.7 |
| 20260901111729 | 21 | 261 | 0.0 | 3.2 | 0.00 | 0.43 | 0.00 | 97 | 1013.8 |
| 20260901111529 | 21 | 261 | 0.0 | 3.2 | 0.00 | 0.43 | 0.00 | 97 | 1013.7 |
| 20260901111329 | 21 | 261 | 0.0 | 3.2 | 0.00 | 0.43 | 0.00 | 97 | 1013.7 |
| 20260901111128 | 21 | 0 | 0.0 | 3.2 | 0.00 | 0.43 | 0.00 | 97 | 1013.7 |
| 20260901110928 | 21 | 261 | 0.0 | 3.2 | 0.00 | 0.43 | 0.00 | 97 | 1013.7 |
| 20260901110728 | 21 | 262 | 0.0 | 3.2 | 0.00 | 0.43 | 0.00 | 97 | 1013.7 |
| 20260901110528 | 21 | 264 | 0.0 | 3.2 | 0.00 | 0.43 | 0.00 | 97 | 1013.7 |
| 20260901110327 | 21 | 267 | 0.0 | 3.2 | 0.00 | 0.43 | 0.00 | 97 | 1013.7 |
| 20260901110127 | 21 | 267 | 0.0 | 6.4 | 0.00 | 0.43 | 0.00 | 97 | 1013.6 |
| 20260901105927 | 21 | 266 | 0.0 | 6.4 | 0.00 | 0.43 | 0.00 | 97 | 1013.7 |
| 20260901105726 | 21 | 209 | 0.0 | 6.4 | 0.00 | 0.43 | 0.00 | 97 | 1013.6 |
| 20260901105526 | 21 | 253 | 1.6 | 6.4 | 0.00 | 0.43 | 0.00 | 97 | 1013.6 |
| 20260901105326 | 21 | 264 | 1.6 | 6.4 | 0.00 | 0.43 | 0.00 | 97 | 1013.6 |
| 20260901105125 | 21 | 272 | 0.0 | 1.6 | 0.00 | 0.43 | 0.00 | 97 | 1013.6 |
| 20260901104925 | 21 | 0 | 0.0 | 3.2 | 0.00 | 0.43 | 0.00 | 97 | 1013.6 |
| 20260901104725 | 21 | 272 | 0.0 | 4.8 | 0.00 | 0.43 | 0.00 | 97 | 1013.6 |
| 20260901104524 | 21 | 272 | 0.0 | 4.8 | 0.00 | 0.43 | 0.00 | 97 | 1013.6 |
| 20260901104324 | 21 | 168 | 0.0 | 4.8 | 0.00 | 0.43 | 0.00 | 97 | 1013.6 |
| 20260901104124 | 21 | 130 | 0.0 | 4.8 | 0.00 | 0.43 | 0.00 | 97 | 1013.5 |
| 20260901103924 | 21 | 117 | 0.0 | 4.8 | 0.00 | 0.43 | 0.00 | 97 | 1013.5 |
| 20260901103723 | 21 | 97 | 0.0 | 4.8 | 0.00 | 0.43 | 0.00 | 97 | 1013.5 |
| 20260901103523 | 21 | 0 | 0.0 | 3.2 | 0.00 | 0.43 | 0.00 | 97 | 1013.5 |
| 20260901103323 | 21 | 232 | 0.0 | 3.2 | 0.00 | 0.43 | 0.00 | 97 | 1013.5 |
| 20260901103122 | 21 | 231 | 0.0 | 3.2 | 0.00 | 0.43 | 0.00 | 97 | 1013.4 |
| 20260901102922 | 21 | 0 | 0.0 | 4.8 | 0.00 | 0.43 | 0.00 | 96 | 1013.4 |
| 20260901102722 | 21 | 0 | 0.0 | 4.8 | 0.00 | 0.43 | 0.00 | 96 | 1013.4 |
| 20260901102521 | 21 | 231 | 0.0 | 4.8 | 0.00 | 0.43 | 0.00 | 96 | 1013.4 |
| 20260901102321 | 21 | 231 | 0.0 | 4.8 | 0.00 | 0.43 | 0.00 | 96 | 1013.4 |
| 20260901102121 | 21 | 231 | 0.0 | 4.8 | 0.00 | 0.43 | 0.00 | 96 | 1013.3 |
| 20260901101920 | 21 | 231 | 0.0 | 4.8 | 0.00 | 0.43 | 0.00 | 96 | 1013.2 |
| 20260901101720 | 21 | 231 | 0.0 | 4.8 | 0.00 | 0.43 | 0.00 | 96 | 1013.2 |
| 20260901101520 | 21 | 231 | 1.6 | 4.8 | 0.00 | 0.43 | 0.00 | 96 | 1013.2 |
| 20260901101319 | 21 | 231 | 0.0 | 6.4 | 0.00 | 0.43 | 0.00 | 96 | 1013.2 |
| 20260901101119 | 21 | 231 | 1.6 | 6.4 | 0.00 | 0.43 | 0.00 | 96 | 1013.2 |
| 20260901100919 | 21 | 231 | 0.0 | 6.4 | 0.00 | 0.43 | 0.00 | 96 | 1013.2 |
| 20260901100719 | 21 | 280 | 0.0 | 6.4 | 0.00 | 0.43 | 0.00 | 96 | 1013.1 |
| 20260901100518 | 21 | 305 | 1.6 | 6.4 | 0.00 | 0.43 | 0.00 | 96 | 1013.3 |
| 20260901100318 | 21 | 247 | 1.6 | 6.4 | 0.00 | 0.43 | 0.00 | 96 | 1013.2 |
| 20260901100118 | 21 | 230 | 0.0 | 4.8 | 0.00 | 0.43 | 0.00 | 96 | 1013.2 |
| 20260901095917 | 21 | 230 | 0.0 | 4.8 | 0.00 | 0.46 | 0.00 | 96 | 1013.2 |
| 20260901095717 | 21 | 230 | 1.6 | 4.8 | 0.00 | 0.46 | 0.00 | 96 | 1013.3 |
| 20260901095517 | 21 | 222 | 0.0 | 4.8 | 0.00 | 0.46 | 0.00 | 96 | 1013.3 |
| 20260901095316 | 21 | 216 | 1.6 | 4.8 | 0.00 | 0.46 | 0.00 | 96 | 1013.3 |
| 20260901095116 | 21 | 216 | 1.6 | 4.8 | 0.00 | 0.46 | 0.00 | 96 | 1013.3 |
| 20260901094916 | 21 | 216 | 0.0 | 1.6 | 0.00 | 0.46 | 0.00 | 96 | 1013.3 |
| 20260901094715 | 21 | 216 | 0.0 | 1.6 | 0.00 | 0.46 | 0.00 | 96 | 1013.3 |
| 20260901094515 | 21 | 216 | 0.0 | 3.2 | 0.00 | 0.46 | 0.00 | 96 | 1013.2 |
| 20260901094315 | 21 | 216 | 0.0 | 3.2 | 0.00 | 0.46 | 0.00 | 96 | 1013.1 |
| 20260901094114 | 21 | 216 | 0.0 | 4.8 | 0.00 | 0.46 | 0.00 | 96 | 1013.1 |
| 20260901093914 | 21 | 216 | 0.0 | 4.8 | 0.00 | 0.46 | 0.00 | 96 | 1013.1 |
| 20260901093714 | 21 | 216 | 0.0 | 4.8 | 0.00 | 0.46 | 0.00 | 96 | 1013.0 |
| 20260901093514 | 21 | 216 | 0.0 | 4.8 | 0.00 | 0.46 | 0.00 | 96 | 1013.0 |
| 20260901093313 | 21 | 216 | 0.0 | 4.8 | 0.00 | 0.46 | 0.00 | 96 | 1013.0 |
| 20260901093113 | 21 | 216 | 0.0 | 6.4 | 0.00 | 0.46 | 0.00 | 96 | 1013.0 |
| 20260901092913 | 21 | 216 | 0.0 | 6.4 | 0.00 | 0.46 | 0.00 | 96 | 1012.9 |
| 20260901092712 | 21 | 216 | 1.6 | 6.4 | 0.00 | 0.46 | 0.00 | 96 | 1012.9 |
| 20260901092512 | 21 | 218 | 1.6 | 6.4 | 0.00 | 0.46 | 0.00 | 96 | 1012.9 |
| 20260901092312 | 21 | 228 | 1.6 | 6.4 | 0.00 | 0.46 | 0.00 | 96 | 1012.9 |
| 20260901092111 | 21 | 208 | 1.6 | 6.4 | 0.00 | 0.46 | 0.00 | 96 | 1012.8 |
| 20260901091911 | 21 | 140 | 1.6 | 6.4 | 0.00 | 0.46 | 0.00 | 96 | 1012.8 |
| 20260901091711 | 21 | 127 | 1.6 | 8.0 | 0.00 | 0.46 | 0.00 | 96 | 1012.9 |
| 20260901091510 | 21 | 144 | 1.6 | 8.0 | 0.00 | 0.46 | 0.00 | 96 | 1012.9 |
| 20260901091310 | 21 | 197 | 3.2 | 8.0 | 0.00 | 0.46 | 0.00 | 96 | 1012.9 |
| 20260901091110 | 21 | 209 | 3.2 | 8.0 | 0.00 | 0.46 | 0.00 | 96 | 1012.8 |
| 20260901090909 | 21 | 218 | 1.6 | 8.0 | 0.00 | 0.46 | 0.00 | 96 | 1012.8 |
| 20260901090709 | 21 | 220 | 1.6 | 8.0 | 0.00 | 0.46 | 0.00 | 96 | 1012.9 |
| 20260901090509 | 21 | 220 | 1.6 | 8.0 | 0.00 | 0.46 | 0.00 | 96 | 1012.9 |
| 20260901090309 | 21 | 229 | 1.6 | 8.0 | 0.00 | 0.46 | 0.00 | 96 | 1012.9 |
| 20260901090108 | 21 | 215 | 3.2 | 8.0 | 0.00 | 0.46 | 0.00 | 96 | 1012.9 |
| 20260901085908 | 21 | 203 | 3.2 | 8.0 | 0.00 | 0.56 | 0.00 | 96 | 1012.9 |
| 20260901085708 | 21 | 228 | 1.6 | 8.0 | 0.00 | 0.56 | 0.00 | 96 | 1012.9 |
| 20260901085507 | 21 | 224 | 1.6 | 6.4 | 0.00 | 0.56 | 0.00 | 96 | 1012.9 |
| 20260901085307 | 21 | 221 | 1.6 | 6.4 | 0.00 | 0.56 | 0.00 | 96 | 1012.9 |
| 20260901085107 | 21 | 188 | 3.2 | 6.4 | 0.00 | 0.56 | 0.00 | 96 | 1012.9 |
| 20260901084906 | 21 | 179 | 3.2 | 6.4 | 0.00 | 0.56 | 0.00 | 96 | 1012.9 |
| 20260901084706 | 21 | 176 | 3.2 | 6.4 | 0.00 | 0.56 | 0.00 | 96 | 1012.9 |
| 20260901084506 | 21 | 227 | 1.6 | 6.4 | 0.00 | 0.56 | 0.00 | 96 | 1012.8 |
| 20260901084305 | 21 | 220 | 1.6 | 6.4 | 0.00 | 0.56 | 0.00 | 96 | 1012.8 |
| 20260901084105 | 21 | 224 | 1.6 | 6.4 | 0.00 | 0.56 | 0.00 | 96 | 1012.8 |
| 20260901083905 | 21 | 230 | 1.6 | 6.4 | 0.00 | 0.56 | 0.00 | 96 | 1012.8 |
| 20260901083704 | 21 | 206 | 1.6 | 6.4 | 0.00 | 0.56 | 0.00 | 96 | 1012.8 |
| 20260901083504 | 21 | 210 | 1.6 | 6.4 | 0.00 | 0.56 | 0.00 | 96 | 1012.7 |
| 20260901083304 | 21 | 221 | 3.2 | 6.4 | 0.00 | 0.56 | 0.00 | 96 | 1012.7 |
| 20260901083104 | 21 | 258 | 1.6 | 6.4 | 0.00 | 0.56 | 0.00 | 96 | 1012.7 |
| 20260901082903 | 21 | 240 | 3.2 | 8.0 | 0.00 | 0.56 | 0.00 | 96 | 1012.7 |
| 20260901082703 | 21 | 213 | 1.6 | 8.0 | 0.00 | 0.56 | 0.00 | 96 | 1012.7 |
| 20260901082503 | 21 | 212 | 1.6 | 8.0 | 0.00 | 0.56 | 0.00 | 96 | 1012.7 |
| 20260901082306 | 21 | 241 | 1.6 | 8.0 | 0.00 | 0.56 | 0.00 | 96 | 1012.7 |
| 20260901082102 | 21 | 258 | 1.6 | 8.0 | 0.00 | 0.56 | 0.00 | 96 | 1012.7 |
| 20260901081902 | 21 | 241 | 3.2 | 6.4 | 0.00 | 0.56 | 0.00 | 96 | 1012.7 |
| 20260901081701 | 21 | 212 | 1.6 | 6.4 | 0.00 | 0.56 | 0.00 | 96 | 1012.6 |
| 20260901081501 | 21 | 220 | 1.6 | 6.4 | 0.00 | 0.56 | 0.00 | 96 | 1012.5 |
| 20260901081301 | 21 | 226 | 1.6 | 6.4 | 0.00 | 0.56 | 0.00 | 96 | 1012.5 |
| 20260901081100 | 22 | 228 | 3.2 | 6.4 | 0.00 | 0.56 | 0.00 | 96 | 1012.5 |
| 20260901080900 | 22 | 218 | 3.2 | 6.4 | 0.00 | 0.56 | 0.00 | 96 | 1012.4 |
| 20260901080700 | 22 | 265 | 1.6 | 6.4 | 0.00 | 0.56 | 0.00 | 96 | 1012.4 |
| 20260901080459 | 22 | 282 | 1.6 | 8.0 | 0.00 | 0.56 | 0.00 | 96 | 1012.5 |
| 20260901080259 | 22 | 272 | 1.6 | 8.0 | 0.00 | 0.56 | 0.00 | 96 | 1012.5 |
| 20260901080059 | 22 | 243 | 3.2 | 8.0 | 0.00 | 0.56 | 0.00 | 96 | 1012.6 |
| 20260901075858 | 22 | 236 | 3.2 | 8.0 | 0.00 | 0.69 | 0.00 | 96 | 1012.5 |
| 20260901075658 | 22 | 233 | 3.2 | 8.0 | 0.00 | 0.69 | 0.00 | 96 | 1012.5 |
| 20260901075458 | 22 | 241 | 3.2 | 8.0 | 0.00 | 0.69 | 0.00 | 96 | 1012.6 |
| 20260901075258 | 22 | 235 | 1.6 | 8.0 | 0.00 | 0.69 | 0.00 | 96 | 1012.6 |
| 20260901075057 | 22 | 234 | 3.2 | 4.8 | 0.00 | 0.69 | 0.00 | 96 | 1012.6 |
| 20260901074857 | 22 | 230 | 1.6 | 8.0 | 0.00 | 0.69 | 0.00 | 96 | 1012.6 |
| 20260901074657 | 22 | 230 | 1.6 | 8.0 | 0.00 | 0.69 | 0.00 | 96 | 1012.5 |
| 20260901074456 | 22 | 231 | 1.6 | 8.0 | 0.00 | 0.69 | 0.00 | 96 | 1012.6 |
| 20260901074256 | 22 | 239 | 1.6 | 8.0 | 0.00 | 0.69 | 0.00 | 96 | 1012.6 |
| 20260901074056 | 22 | 232 | 3.2 | 8.0 | 0.00 | 0.69 | 0.00 | 96 | 1012.6 |
| 20260901073855 | 22 | 186 | 3.2 | 8.0 | 0.00 | 0.69 | 0.00 | 96 | 1012.7 |
| 20260901073655 | 22 | 206 | 3.2 | 8.0 | 0.00 | 0.69 | 0.00 | 96 | 1012.7 |
| 20260901073455 | 22 | 237 | 3.2 | 8.0 | 0.00 | 0.69 | 0.00 | 96 | 1012.7 |
| 20260901073254 | 22 | 205 | 3.2 | 8.0 | 0.00 | 0.69 | 0.00 | 96 | 1012.7 |
| 20260901073054 | 22 | 192 | 1.6 | 8.0 | 0.00 | 0.69 | 0.00 | 97 | 1012.8 |
| 20260901072854 | 22 | 225 | 3.2 | 8.0 | 0.00 | 0.69 | 0.00 | 97 | 1012.9 |
| 20260901072654 | 22 | 214 | 3.2 | 6.4 | 0.00 | 0.69 | 0.00 | 97 | 1013.0 |
| 20260901072453 | 22 | 213 | 3.2 | 6.4 | 0.00 | 0.69 | 0.00 | 97 | 1013.0 |
| 20260901072253 | 22 | 224 | 3.2 | 6.4 | 0.00 | 0.69 | 0.00 | 97 | 1013.1 |
| 20260901072053 | 22 | 230 | 3.2 | 6.4 | 0.00 | 0.69 | 0.00 | 97 | 1013.0 |
| 20260901071852 | 22 | 232 | 3.2 | 6.4 | 0.00 | 0.69 | 0.00 | 97 | 1013.1 |
| 20260901071652 | 22 | 235 | 1.6 | 4.8 | 0.00 | 0.69 | 0.00 | 97 | 1013.1 |
| 20260901071452 | 22 | 235 | 0.0 | 4.8 | 0.00 | 0.69 | 0.00 | 97 | 1013.1 |
| 20260901071251 | 22 | 235 | 1.6 | 4.8 | 0.00 | 0.69 | 0.00 | 97 | 1013.1 |
| 20260901071051 | 22 | 0 | 0.0 | 4.8 | 0.00 | 0.69 | 0.00 | 97 | 1013.2 |
| 20260901070851 | 22 | 0 | 0.0 | 4.8 | 0.00 | 0.69 | 0.00 | 97 | 1013.2 |
| 20260901070650 | 22 | 0 | 0.0 | 4.8 | 0.00 | 0.69 | 0.00 | 97 | 1013.1 |
| 20260901070450 | 22 | 235 | 0.0 | 4.8 | 0.00 | 0.69 | 0.00 | 97 | 1013.2 |
| 20260901070250 | 22 | 235 | 1.6 | 4.8 | 0.00 | 0.69 | 0.00 | 97 | 1013.2 |
| 20260901070050 | 22 | 235 | 1.6 | 6.4 | 0.00 | 0.69 | 0.00 | 97 | 1013.1 |
| 20260901065849 | 22 | 235 | 0.0 | 8.0 | 0.00 | 0.74 | 0.00 | 97 | 1013.1 |
| 20260901065649 | 22 | 235 | 1.6 | 8.0 | 0.00 | 0.74 | 0.00 | 97 | 1013.1 |
| 20260901065449 | 22 | 232 | 3.2 | 8.0 | 0.00 | 0.74 | 0.00 | 97 | 1013.2 |
| 20260901065248 | 22 | 217 | 3.2 | 8.0 | 0.00 | 0.74 | 0.00 | 97 | 1013.1 |
| 20260901065048 | 22 | 218 | 3.2 | 8.0 | 0.00 | 0.74 | 0.00 | 97 | 1013.1 |
| 20260901064848 | 22 | 232 | 3.2 | 8.0 | 0.00 | 0.74 | 0.00 | 97 | 1013.2 |
| 20260901064648 | 22 | 228 | 1.6 | 8.0 | 0.00 | 0.74 | 0.00 | 98 | 1013.2 |
| 20260901064447 | 22 | 223 | 1.6 | 8.0 | 0.00 | 0.74 | 0.00 | 98 | 1013.3 |
| 20260901064247 | 21 | 223 | 4.8 | 8.0 | 0.00 | 0.74 | 0.00 | 98 | 1013.3 |
| 20260901064046 | 21 | 223 | 3.2 | 8.0 | 0.00 | 0.74 | 0.00 | 98 | 1013.3 |
| 20260901063846 | 21 | 234 | 3.2 | 8.0 | 0.00 | 0.74 | 0.00 | 98 | 1013.3 |
| 20260901063646 | 21 | 232 | 3.2 | 8.0 | 0.00 | 0.74 | 0.00 | 98 | 1013.3 |
| 20260901063445 | 21 | 230 | 3.2 | 8.0 | 0.00 | 0.74 | 0.00 | 98 | 1013.4 |
| 20260901063245 | 21 | 224 | 3.2 | 8.0 | 0.00 | 0.74 | 0.00 | 98 | 1013.4 |
| 20260901063045 | 21 | 207 | 3.2 | 9.7 | 0.00 | 0.74 | 0.00 | 98 | 1013.4 |
| 20260901062845 | 21 | 206 | 3.2 | 9.7 | 0.00 | 0.74 | 0.00 | 98 | 1013.4 |
| 20260901062644 | 21 | 217 | 3.2 | 9.7 | 0.00 | 0.74 | 0.00 | 98 | 1013.5 |
| 20260901062444 | 21 | 226 | 4.8 | 9.7 | 0.00 | 0.74 | 0.00 | 98 | 1013.4 |
| 20260901062244 | 21 | 207 | 4.8 | 11.3 | 0.00 | 0.74 | 0.00 | 98 | 1013.4 |
| 20260901062043 | 21 | 202 | 3.2 | 11.3 | 0.00 | 0.74 | 0.00 | 98 | 1013.4 |
| 20260901061843 | 21 | 219 | 3.2 | 11.3 | 0.00 | 0.74 | 0.00 | 98 | 1013.4 |
| 20260901061643 | 21 | 216 | 4.8 | 11.3 | 0.00 | 0.74 | 0.00 | 98 | 1013.4 |
| 20260901061442 | 21 | 213 | 4.8 | 11.3 | 0.00 | 0.74 | 0.00 | 98 | 1013.4 |
| 20260901061242 | 21 | 219 | 3.2 | 11.3 | 0.00 | 0.74 | 0.00 | 98 | 1013.4 |
| 20260901061042 | 21 | 214 | 3.2 | 9.7 | 0.00 | 0.74 | 0.00 | 98 | 1013.6 |
| 20260901060841 | 21 | 223 | 3.2 | 9.7 | 0.00 | 0.74 | 0.00 | 98 | 1013.6 |
| 20260901060641 | 21 | 229 | 4.8 | 9.7 | 0.00 | 0.74 | 0.00 | 98 | 1013.5 |
| 20260901060441 | 21 | 217 | 3.2 | 9.7 | 0.00 | 0.74 | 0.00 | 98 | 1013.6 |
| 20260901060240 | 21 | 215 | 3.2 | 8.0 | 0.00 | 0.74 | 0.00 | 98 | 1013.6 |
| 20260901060040 | 21 | 219 | 4.8 | 11.3 | 0.00 | 0.74 | 0.00 | 98 | 1013.7 |
| 20260901055840 | 21 | 213 | 3.2 | 11.3 | 0.00 | 0.74 | 0.00 | 98 | 1013.7 |
| 20260901055640 | 21 | 219 | 3.2 | 11.3 | 0.00 | 0.74 | 0.00 | 98 | 1013.8 |
| 20260901055439 | 21 | 226 | 4.8 | 11.3 | 0.00 | 0.74 | 0.00 | 98 | 1013.9 |
| 20260901055239 | 21 | 221 | 4.8 | 11.3 | 0.00 | 0.74 | 0.00 | 98 | 1013.9 |
| 20260901055039 | 21 | 224 | 3.2 | 11.3 | 0.00 | 0.74 | 0.00 | 98 | 1013.9 |
| 20260901054838 | 21 | 225 | 4.8 | 11.3 | 0.00 | 0.74 | 0.00 | 98 | 1014.0 |
| 20260901054638 | 21 | 240 | 3.2 | 11.3 | 0.00 | 0.74 | 0.00 | 98 | 1013.9 |
| 20260901054438 | 21 | 225 | 3.2 | 11.3 | 0.00 | 0.74 | 0.00 | 98 | 1013.9 |
| 20260901054237 | 21 | 226 | 4.8 | 11.3 | 0.00 | 0.74 | 0.00 | 98 | 1013.9 |
| 20260901054037 | 21 | 218 | 4.8 | 11.3 | 0.00 | 0.74 | 0.00 | 98 | 1014.1 |
| 20260901053837 | 21 | 199 | 4.8 | 9.7 | 0.00 | 0.74 | 0.00 | 98 | 1014.0 |
| 20260901053636 | 21 | 213 | 4.8 | 9.7 | 0.00 | 0.74 | 0.00 | 98 | 1014.1 |
| 20260901053436 | 21 | 215 | 4.8 | 9.7 | 0.00 | 0.74 | 0.00 | 98 | 1014.1 |
| 20260901053236 | 21 | 209 | 4.8 | 11.3 | 0.00 | 0.74 | 0.00 | 98 | 1014.0 |
| 20260901053035 | 21 | 223 | 3.2 | 11.3 | 0.00 | 0.74 | 0.00 | 98 | 1014.0 |
| 20260901052835 | 21 | 221 | 4.8 | 11.3 | 0.00 | 0.74 | 0.00 | 98 | 1013.9 |
| 20260901052635 | 21 | 215 | 6.4 | 11.3 | 0.00 | 0.74 | 0.00 | 98 | 1014.1 |
| 20260901052435 | 21 | 232 | 4.8 | 11.3 | 0.00 | 0.74 | 0.00 | 98 | 1014.1 |
| 20260901052234 | 21 | 226 | 4.8 | 11.3 | 0.00 | 0.74 | 0.00 | 98 | 1014.2 |
| 20260901052034 | 21 | 223 | 4.8 | 11.3 | 0.00 | 0.74 | 0.00 | 98 | 1014.2 |
| 20260901051834 | 21 | 225 | 4.8 | 9.7 | 0.00 | 0.74 | 0.00 | 98 | 1014.3 |
| 20260901051633 | 21 | 223 | 4.8 | 9.7 | 0.00 | 0.74 | 0.00 | 98 | 1014.3 |
| 20260901051433 | 21 | 219 | 3.2 | 9.7 | 0.00 | 0.74 | 0.00 | 98 | 1014.3 |
| 20260901051233 | 21 | 219 | 4.8 | 9.7 | 0.00 | 0.74 | 0.00 | 99 | 1014.2 |
| 20260901051032 | 21 | 217 | 6.4 | 9.7 | 0.00 | 0.74 | 0.00 | 99 | 1014.2 |
| 20260901050832 | 21 | 228 | 4.8 | 9.7 | 0.00 | 0.74 | 0.00 | 99 | 1014.3 |
| 20260901050632 | 21 | 230 | 3.2 | 9.7 | 0.00 | 0.74 | 0.00 | 99 | 1014.4 |
| 20260901050431 | 21 | 235 | 3.2 | 8.0 | 0.00 | 0.74 | 0.00 | 99 | 1014.4 |
| 20260901050231 | 21 | 229 | 4.8 | 8.0 | 0.00 | 0.74 | 0.00 | 99 | 1014.4 |
| 20260901050031 | 21 | 232 | 4.8 | 8.0 | 0.00 | 0.74 | 0.00 | 99 | 1014.4 |
| 20260901045831 | 21 | 235 | 3.2 | 9.7 | 0.00 | 0.74 | 0.00 | 99 | 1014.5 |
| 20260901045630 | 21 | 231 | 3.2 | 9.7 | 0.00 | 0.74 | 0.00 | 99 | 1014.4 |
| 20260901045430 | 21 | 229 | 3.2 | 9.7 | 0.00 | 0.74 | 0.00 | 99 | 1014.4 |
| 20260901045230 | 21 | 224 | 3.2 | 9.7 | 0.00 | 0.74 | 0.00 | 99 | 1014.4 |
| 20260901045029 | 21 | 191 | 3.2 | 9.7 | 0.00 | 0.74 | 0.00 | 99 | 1014.4 |
| 20260901044829 | 21 | 205 | 3.2 | 6.4 | 0.00 | 0.74 | 0.00 | 99 | 1014.5 |
| 20260901044629 | 21 | 224 | 3.2 | 6.4 | 0.00 | 0.74 | 0.00 | 99 | 1014.5 |
| 20260901044428 | 21 | 212 | 1.6 | 6.4 | 0.00 | 0.74 | 0.00 | 99 | 1014.5 |
| 20260901044228 | 21 | 207 | 1.6 | 6.4 | 0.00 | 0.74 | 0.00 | 99 | 1014.5 |
| 20260901044028 | 21 | 225 | 3.2 | 6.4 | 0.00 | 0.74 | 0.00 | 99 | 1014.5 |
| 20260901043827 | 21 | 218 | 1.6 | 4.8 | 0.00 | 0.74 | 0.00 | 99 | 1014.5 |
| 20260901043627 | 21 | 167 | 0.0 | 4.8 | 0.00 | 0.74 | 0.00 | 99 | 1014.5 |
| 20260901043427 | 21 | 0 | 0.0 | 0.0 | 0.00 | 0.74 | 0.00 | 99 | 1014.5 |
| 20260901043226 | 21 | 0 | 0.0 | 0.0 | 0.00 | 0.74 | 0.00 | 99 | 1014.6 |
| 20260901043026 | 21 | 0 | 0.0 | 0.0 | 0.00 | 0.74 | 0.00 | 99 | 1014.6 |
| 20260901042826 | 21 | 0 | 0.0 | 0.0 | 0.00 | 0.74 | 0.00 | 99 | 1014.6 |
| 20260901042626 | 21 | 0 | 0.0 | 0.0 | 0.00 | 0.74 | 0.00 | 99 | 1014.6 |
| 20260901042425 | 21 | 0 | 0.0 | 0.0 | 0.00 | 0.74 | 0.00 | 99 | 1014.7 |
| 20260901042225 | 21 | 0 | 0.0 | 0.0 | 0.00 | 0.74 | 0.00 | 99 | 1014.7 |
| 20260901042025 | 21 | 0 | 0.0 | 0.0 | 0.00 | 0.74 | 0.00 | 99 | 1014.7 |
| 20260901041824 | 21 | 0 | 0.0 | 0.0 | 0.00 | 0.74 | 0.00 | 99 | 1014.8 |
| 20260901041624 | 21 | 0 | 0.0 | 0.0 | 0.00 | 0.74 | 0.00 | 99 | 1014.8 |
| 20260901041424 | 21 | 0 | 0.0 | 0.0 | 0.00 | 0.74 | 0.00 | 99 | 1014.8 |
| 20260901041223 | 21 | 0 | 0.0 | 0.0 | 0.00 | 0.74 | 0.00 | 99 | 1014.8 |
| 20260901041023 | 21 | 0 | 0.0 | 0.0 | 0.00 | 0.74 | 0.00 | 99 | 1014.8 |
| 20260901040823 | 21 | 0 | 0.0 | 0.0 | 0.00 | 0.74 | 0.00 | 99 | 1014.9 |
| 20260901040622 | 21 | 0 | 0.0 | 0.0 | 0.00 | 0.74 | 0.00 | 99 | 1014.9 |
| 20260901040422 | 21 | 0 | 0.0 | 0.0 | 0.00 | 0.74 | 0.00 | 99 | 1014.8 |
| 20260901040222 | 21 | 0 | 0.0 | 0.0 | 0.00 | 0.74 | 0.00 | 99 | 1014.8 |
| 20260901040022 | 21 | 0 | 0.0 | 0.0 | 0.00 | 0.74 | 0.00 | 99 | 1014.8 |
| 20260901035821 | 21 | 0 | 0.0 | 0.0 | 0.00 | 0.79 | 0.74 | 99 | 1014.8 |
| 20260901035621 | 21 | 0 | 0.0 | 0.0 | 0.00 | 0.79 | 0.74 | 99 | 1014.9 |
| 20260901035421 | 21 | 0 | 0.0 | 1.6 | 0.00 | 0.79 | 0.74 | 99 | 1014.8 |
| 20260901035220 | 21 | 0 | 0.0 | 1.6 | 0.00 | 0.79 | 0.74 | 99 | 1014.9 |
| 20260901035020 | 21 | 0 | 0.0 | 1.6 | 0.00 | 0.79 | 0.74 | 99 | 1014.8 |
| 20260901034820 | 21 | 218 | 0.0 | 1.6 | 0.00 | 0.79 | 0.74 | 99 | 1014.9 |
| 20260901034619 | 21 | 218 | 0.0 | 1.6 | 0.00 | 0.79 | 0.74 | 99 | 1014.8 |